Wetterdaten: Mittwoch, 01.02.2012
Datum Zeit Temp. Innen Temp. Aussen UV X Diff Temp. Feuchte Inne Feuchte Auss Sonnenschein Luftdruck Regen ab 0,1 Wind Sonnenschein T Regendauer Windben
01.02.2012 00:00 10,9 C -5,4 C 0,0 UV-I 0,0 C 39 % 77 % 0 % 1027,3 hPa 0,0 l/m 4,8 km/h (1 Bft) 0 min 0 min 7,6 km/h (2 Bft)
01.02.2012 00:02 10,9 C -5,4 C 0,0 UV-I 0,0 C 39 % 77 % 0 % 1027,3 hPa 0,0 l/m 4,8 km/h (1 Bft) 0 min 0 min 7,6 km/h (2 Bft)
01.02.2012 00:04 10,9 C -5,4 C 0,0 UV-I 0,0 C 39 % 77 % 0 % 1027,4 hPa 0,0 l/m 5,2 km/h (1 Bft) 0 min 0 min 8,8 km/h (2 Bft)
01.02.2012 00:06 10,9 C -5,4 C 0,0 UV-I 0,0 C 39 % 77 % 0 % 1027,4 hPa 0,0 l/m 5,2 km/h (1 Bft) 0 min 0 min 8,8 km/h (2 Bft)
01.02.2012 00:08 11,1 C -5,4 C 0,0 UV-I 0,0 C 39 % 77 % 0 % 1027,4 hPa 0,0 l/m 5,6 km/h (1 Bft) 0 min 0 min 12,8 km/h (3 Bft)
01.02.2012 00:10 10,9 C -5,4 C 0,0 UV-I 0,0 C 39 % 77 % 0 % 1027,4 hPa 0,0 l/m 6,8 km/h (2 Bft) 0 min 0 min 12,8 km/h (3 Bft)
01.02.2012 00:12 11,0 C -5,6 C 0,0 UV-I 0,0 C 39 % 77 % 0 % 1027,4 hPa 0,0 l/m 7,6 km/h (2 Bft) 0 min 0 min 11,6 km/h (2 Bft)
01.02.2012 00:14 11,0 C -5,4 C 0,0 UV-I 0,0 C 39 % 77 % 0 % 1027,4 hPa 0,0 l/m 7,2 km/h (2 Bft) 0 min 0 min 9,2 km/h (2 Bft)
01.02.2012 00:16 10,9 C -5,6 C 0,0 UV-I 0,0 C 39 % 77 % 0 % 1027,4 hPa 0,0 l/m 7,6 km/h (2 Bft) 0 min 0 min 9,2 km/h (2 Bft)
01.02.2012 00:18 11,0 C -5,6 C 0,0 UV-I 0,0 C 39 % 77 % 0 % 1027,4 hPa 0,0 l/m 7,2 km/h (2 Bft) 0 min 0 min 8,8 km/h (2 Bft)
01.02.2012 00:20 11,0 C -5,6 C 0,0 UV-I 0,0 C 39 % 77 % 0 % 1027,4 hPa 0,0 l/m 6,0 km/h (2 Bft) 0 min 0 min 8,0 km/h (2 Bft)
01.02.2012 00:22 10,9 C -5,6 C 0,0 UV-I 0,0 C 39 % 77 % 0 % 1027,4 hPa 0,0 l/m 4,8 km/h (1 Bft) 0 min 0 min 8,0 km/h (2 Bft)
01.02.2012 00:24 10,9 C -5,6 C 0,0 UV-I 0,0 C 39 % 77 % 0 % 1027,7 hPa 0,0 l/m 4,4 km/h (1 Bft) 0 min 0 min 6,8 km/h (2 Bft)
01.02.2012 00:26 10,9 C -5,7 C 0,0 UV-I 0,0 C 39 % 77 % 0 % 1027,7 hPa 0,0 l/m 4,4 km/h (1 Bft) 0 min 0 min 8,8 km/h (2 Bft)
01.02.2012 00:28 11,0 C -5,7 C 0,0 UV-I 0,0 C 39 % 78 % 0 % 1027,7 hPa 0,0 l/m 4,4 km/h (1 Bft) 0 min 0 min 8,8 km/h (2 Bft)
01.02.2012 00:30 11,0 C -5,7 C 0,0 UV-I 0,0 C 39 % 78 % 0 % 1027,7 hPa 0,0 l/m 4,8 km/h (1 Bft) 0 min 0 min 8,4 km/h (2 Bft)
01.02.2012 00:32 11,0 C -5,7 C 0,0 UV-I 0,0 C 39 % 78 % 0 % 1027,7 hPa 0,0 l/m 4,8 km/h (1 Bft) 0 min 0 min 7,2 km/h (2 Bft)
01.02.2012 00:34 11,0 C -5,8 C 0,0 UV-I 0,0 C 39 % 78 % 0 % 1027,7 hPa 0,0 l/m 4,8 km/h (1 Bft) 0 min 0 min 8,4 km/h (2 Bft)
01.02.2012 00:36 11,0 C -5,8 C 0,0 UV-I 0,0 C 39 % 78 % 0 % 1027,7 hPa 0,0 l/m 5,6 km/h (1 Bft) 0 min 0 min 13,7 km/h (3 Bft)
01.02.2012 00:38 11,0 C -5,8 C 0,0 UV-I 0,0 C 39 % 78 % 0 % 1027,7 hPa 0,0 l/m 6,0 km/h (2 Bft) 0 min 0 min 13,7 km/h (3 Bft)
01.02.2012 00:40 11,0 C -5,8 C 0,0 UV-I 0,0 C 39 % 78 % 0 % 1027,7 hPa 0,0 l/m 6,0 km/h (2 Bft) 0 min 0 min 12,4 km/h (3 Bft)
01.02.2012 00:42 11,0 C -5,8 C 0,0 UV-I 0,0 C 39 % 78 % 0 % 1027,7 hPa 0,0 l/m 6,4 km/h (2 Bft) 0 min 0 min 8,4 km/h (2 Bft)
01.02.2012 00:44 11,0 C -5,8 C 0,0 UV-I 0,0 C 39 % 78 % 0 % 1027,8 hPa 0,0 l/m 6,8 km/h (2 Bft) 0 min 0 min 8,4 km/h (2 Bft)
01.02.2012 00:46 11,0 C -5,8 C 0,0 UV-I 0,0 C 39 % 78 % 0 % 1027,8 hPa 0,0 l/m 6,8 km/h (2 Bft) 0 min 0 min 6,4 km/h (2 Bft)
01.02.2012 00:48 11,0 C -5,8 C 0,0 UV-I 0,0 C 39 % 78 % 0 % 1027,8 hPa 0,0 l/m 6,4 km/h (2 Bft) 0 min 0 min 13,3 km/h (3 Bft)
01.02.2012 00:50 11,0 C -5,9 C 0,0 UV-I 0,0 C 39 % 78 % 0 % 1027,8 hPa 0,0 l/m 6,4 km/h (2 Bft) 0 min 0 min 13,3 km/h (3 Bft)
01.02.2012 00:52 11,0 C -5,8 C 0,0 UV-I 0,0 C 39 % 78 % 0 % 1027,8 hPa 0,0 l/m 7,2 km/h (2 Bft) 0 min 0 min 12,4 km/h (3 Bft)
01.02.2012 00:54 11,0 C -5,8 C 0,0 UV-I 0,0 C 39 % 78 % 0 % 1027,8 hPa 0,0 l/m 6,8 km/h (2 Bft) 0 min 0 min 12,4 km/h (3 Bft)
01.02.2012 00:56 11,0 C -5,8 C 0,0 UV-I 0,0 C 39 % 78 % 0 % 1027,8 hPa 0,0 l/m 7,2 km/h (2 Bft) 0 min 0 min 6,8 km/h (2 Bft)
01.02.2012 00:58 11,0 C -5,8 C 0,0 UV-I 0,0 C 39 % 78 % 0 % 1027,8 hPa 0,0 l/m 6,8 km/h (2 Bft) 0 min 0 min 6,8 km/h (2 Bft)
01.02.2012 01:00 11,0 C -6,0 C 0,0 UV-I 0,0 C 39 % 78 % 0 % 1027,8 hPa 0,0 l/m 6,4 km/h (2 Bft) 0 min 0 min 8,8 km/h (2 Bft)
01.02.2012 01:02 11,0 C -6,0 C 0,0 UV-I 0,0 C 39 % 78 % 0 % 1027,8 hPa 0,0 l/m 6,0 km/h (2 Bft) 0 min 0 min 12,0 km/h (2 Bft)
01.02.2012 01:04 11,0 C -6,0 C 0,0 UV-I 0,0 C 39 % 78 % 0 % 1027,8 hPa 0,0 l/m 6,0 km/h (2 Bft) 0 min 0 min 12,0 km/h (2 Bft)
01.02.2012 01:06 10,8 C -6,0 C 0,0 UV-I 0,0 C 39 % 79 % 0 % 1027,8 hPa 0,0 l/m 6,0 km/h (2 Bft) 0 min 0 min 10,0 km/h (2 Bft)
01.02.2012 01:08 10,8 C -6,0 C 0,0 UV-I 0,0 C 39 % 79 % 0 % 1027,8 hPa 0,0 l/m 6,4 km/h (2 Bft) 0 min 0 min 10,0 km/h (2 Bft)
01.02.2012 01:10 10,8 C -6,0 C 0,0 UV-I 0,0 C 39 % 79 % 0 % 1027,8 hPa 0,0 l/m 6,8 km/h (2 Bft) 0 min 0 min 7,2 km/h (2 Bft)
01.02.2012 01:12 10,8 C -6,0 C 0,0 UV-I 0,0 C 39 % 79 % 0 % 1027,8 hPa 0,0 l/m 6,8 km/h (2 Bft) 0 min 0 min 6,8 km/h (2 Bft)
01.02.2012 01:14 11,0 C -6,1 C 0,0 UV-I 0,0 C 39 % 79 % 0 % 1027,8 hPa 0,0 l/m 6,8 km/h (2 Bft) 0 min 0 min 12,8 km/h (3 Bft)
01.02.2012 01:16 10,8 C -6,1 C 0,0 UV-I 0,0 C 39 % 79 % 0 % 1027,8 hPa 0,0 l/m 7,2 km/h (2 Bft) 0 min 0 min 12,8 km/h (3 Bft)
01.02.2012 01:18 11,0 C -6,1 C 0,0 UV-I 0,0 C 39 % 79 % 0 % 1027,8 hPa 0,0 l/m 6,8 km/h (2 Bft) 0 min 0 min 6,8 km/h (2 Bft)
01.02.2012 01:20 10,8 C -6,1 C 0,0 UV-I 0,0 C 39 % 79 % 0 % 1027,8 hPa 0,0 l/m 6,4 km/h (2 Bft) 0 min 0 min 11,6 km/h (2 Bft)
01.02.2012 01:22 10,8 C -6,2 C 0,0 UV-I 0,0 C 39 % 79 % 0 % 1027,8 hPa 0,0 l/m 6,8 km/h (2 Bft) 0 min 0 min 13,3 km/h (3 Bft)
01.02.2012 01:24 10,8 C -6,2 C 0,0 UV-I 0,0 C 39 % 79 % 0 % 1028,0 hPa 0,0 l/m 6,8 km/h (2 Bft) 0 min 0 min 13,3 km/h (3 Bft)
01.02.2012 01:26 10,8 C -6,2 C 0,0 UV-I 0,0 C 39 % 79 % 0 % 1028,0 hPa 0,0 l/m 5,6 km/h (1 Bft) 0 min 0 min 6,4 km/h (2 Bft)
01.02.2012 01:28 10,8 C -6,2 C 0,0 UV-I 0,0 C 39 % 79 % 0 % 1028,0 hPa 0,0 l/m 5,2 km/h (1 Bft) 0 min 0 min 9,2 km/h (2 Bft)
01.02.2012 01:30 10,8 C -6,2 C 0,0 UV-I 0,0 C 39 % 79 % 0 % 1028,0 hPa 0,0 l/m 5,2 km/h (1 Bft) 0 min 0 min 9,2 km/h (2 Bft)
01.02.2012 01:32 10,9 C -6,2 C 0,0 UV-I 0,0 C 39 % 79 % 0 % 1028,0 hPa 0,0 l/m 5,2 km/h (1 Bft) 0 min 0 min 6,8 km/h (2 Bft)
01.02.2012 01:34 10,8 C -6,2 C 0,0 UV-I 0,0 C 39 % 80 % 0 % 1028,0 hPa 0,0 l/m 4,8 km/h (1 Bft) 0 min 0 min 9,2 km/h (2 Bft)
01.02.2012 01:36 10,9 C -6,2 C 0,0 UV-I 0,0 C 39 % 80 % 0 % 1028,0 hPa 0,0 l/m 4,8 km/h (1 Bft) 0 min 0 min 9,2 km/h (2 Bft)
01.02.2012 01:38 10,8 C -6,3 C 0,0 UV-I 0,0 C 39 % 80 % 0 % 1028,0 hPa 0,0 l/m 5,6 km/h (1 Bft) 0 min 0 min 8,0 km/h (2 Bft)
01.02.2012 01:40 10,8 C -6,2 C 0,0 UV-I 0,0 C 39 % 80 % 0 % 1028,0 hPa 0,0 l/m 5,6 km/h (1 Bft) 0 min 0 min 8,0 km/h (2 Bft)
01.02.2012 01:42 10,9 C -6,2 C 0,0 UV-I 0,0 C 39 % 80 % 0 % 1028,0 hPa 0,0 l/m 5,6 km/h (1 Bft) 0 min 0 min 6,4 km/h (2 Bft)
01.02.2012 01:44 10,9 C -6,2 C 0,0 UV-I 0,0 C 39 % 80 % 0 % 1028,0 hPa 0,0 l/m 5,6 km/h (1 Bft) 0 min 0 min 8,0 km/h (2 Bft)
01.02.2012 01:46 10,9 C -6,2 C 0,0 UV-I 0,0 C 39 % 80 % 0 % 1028,0 hPa 0,0 l/m 6,0 km/h (2 Bft) 0 min 0 min 8,4 km/h (2 Bft)
01.02.2012 01:48 10,8 C -6,4 C 0,0 UV-I 0,0 C 39 % 80 % 0 % 1028,0 hPa 0,0 l/m 6,4 km/h (2 Bft) 0 min 0 min 12,4 km/h (3 Bft)
01.02.2012 01:50 10,9 C -6,4 C 0,0 UV-I 0,0 C 39 % 81 % 0 % 1028,0 hPa 0,0 l/m 6,4 km/h (2 Bft) 0 min 0 min 12,4 km/h (3 Bft)
01.02.2012 01:52 10,9 C -6,4 C 0,0 UV-I 0,0 C 39 % 81 % 0 % 1028,0 hPa 0,0 l/m 6,4 km/h (2 Bft) 0 min 0 min 12,8 km/h (3 Bft)
01.02.2012 01:54 10,9 C -6,4 C 0,0 UV-I 0,0 C 39 % 81 % 0 % 1028,0 hPa 0,0 l/m 6,8 km/h (2 Bft) 0 min 0 min 17,3 km/h (3 Bft)
01.02.2012 01:56 10,9 C -6,4 C 0,0 UV-I 0,0 C 39 % 81 % 0 % 1028,0 hPa 0,0 l/m 6,8 km/h (2 Bft) 0 min 0 min 17,3 km/h (3 Bft)
01.02.2012 01:58 10,9 C -6,5 C 0,0 UV-I 0,0 C 39 % 81 % 0 % 1028,0 hPa 0,0 l/m 7,2 km/h (2 Bft) 0 min 0 min 8,4 km/h (2 Bft)
01.02.2012 02:00 10,8 C -6,5 C 0,0 UV-I 0,0 C 39 % 81 % 0 % 1028,0 hPa 0,0 l/m 7,6 km/h (2 Bft) 0 min 0 min 9,6 km/h (2 Bft)
01.02.2012 02:02 10,9 C -6,5 C 0,0 UV-I 0,0 C 39 % 81 % 0 % 1028,0 hPa 0,0 l/m 7,6 km/h (2 Bft) 0 min 0 min 9,6 km/h (2 Bft)
01.02.2012 02:04 10,9 C -6,5 C 0,0 UV-I 0,0 C 39 % 81 % 0 % 1028,0 hPa 0,0 l/m 7,2 km/h (2 Bft) 0 min 0 min 10,8 km/h (2 Bft)
01.02.2012 02:06 10,9 C -6,4 C 0,0 UV-I 0,0 C 39 % 81 % 0 % 1028,0 hPa 0,0 l/m 7,6 km/h (2 Bft) 0 min 0 min 7,2 km/h (2 Bft)
01.02.2012 02:08 10,9 C -6,6 C 0,0 UV-I 0,0 C 39 % 81 % 0 % 1028,0 hPa 0,0 l/m 7,2 km/h (2 Bft) 0 min 0 min 7,2 km/h (2 Bft)
01.02.2012 02:10 10,9 C -6,6 C 0,0 UV-I 0,0 C 39 % 81 % 0 % 1028,0 hPa 0,0 l/m 6,0 km/h (2 Bft) 0 min 0 min 6,8 km/h (2 Bft)
01.02.2012 02:12 10,8 C -6,6 C 0,0 UV-I 0,0 C 39 % 81 % 0 % 1028,0 hPa 0,0 l/m 6,4 km/h (2 Bft) 0 min 0 min 10,4 km/h (2 Bft)
01.02.2012 02:14 10,8 C -6,6 C 0,0 UV-I 0,0 C 39 % 81 % 0 % 1028,0 hPa 0,0 l/m 6,8 km/h (2 Bft) 0 min 0 min 10,4 km/h (2 Bft)
01.02.2012 02:16 10,8 C -6,6 C 0,0 UV-I 0,0 C 39 % 81 % 0 % 1028,0 hPa 0,0 l/m 6,8 km/h (2 Bft) 0 min 0 min 12,8 km/h (3 Bft)
01.02.2012 02:18 10,8 C -6,6 C 0,0 UV-I 0,0 C 39 % 81 % 0 % 1028,0 hPa 0,0 l/m 7,2 km/h (2 Bft) 0 min 0 min 12,8 km/h (3 Bft)
01.02.2012 02:20 10,8 C -6,6 C 0,0 UV-I 0,0 C 39 % 81 % 0 % 1028,0 hPa 0,0 l/m 8,0 km/h (2 Bft) 0 min 0 min 9,6 km/h (2 Bft)
01.02.2012 02:22 10,8 C -6,7 C 0,0 UV-I 0,0 C 39 % 81 % 0 % 1028,0 hPa 0,0 l/m 8,4 km/h (2 Bft) 0 min 0 min 13,3 km/h (3 Bft)
01.02.2012 02:24 10,8 C -6,7 C 0,0 UV-I 0,0 C 39 % 81 % 0 % 1028,2 hPa 0,0 l/m 8,4 km/h (2 Bft) 0 min 0 min 13,3 km/h (3 Bft)
01.02.2012 02:26 10,8 C -6,6 C 0,0 UV-I 0,0 C 39 % 81 % 0 % 1028,2 hPa 0,0 l/m 9,2 km/h (2 Bft) 0 min 0 min 16,1 km/h (3 Bft)
01.02.2012 02:28 10,8 C -6,6 C 0,0 UV-I 0,0 C 39 % 81 % 0 % 1028,2 hPa 0,0 l/m 9,6 km/h (2 Bft) 0 min 0 min 16,1 km/h (3 Bft)
01.02.2012 02:30 10,8 C -6,6 C 0,0 UV-I 0,0 C 39 % 81 % 0 % 1028,2 hPa 0,0 l/m 10,0 km/h (2 Bft) 0 min 0 min 15,7 km/h (3 Bft)
01.02.2012 02:32 10,8 C -6,8 C 0,0 UV-I 0,0 C 39 % 81 % 0 % 1028,2 hPa 0,0 l/m 9,6 km/h (2 Bft) 0 min 0 min 9,6 km/h (2 Bft)
01.02.2012 02:34 10,8 C -6,8 C 0,0 UV-I 0,0 C 39 % 81 % 0 % 1028,2 hPa 0,0 l/m 9,6 km/h (2 Bft) 0 min 0 min 11,2 km/h (2 Bft)
01.02.2012 02:36 10,8 C -6,8 C 0,0 UV-I 0,0 C 39 % 81 % 0 % 1028,2 hPa 0,0 l/m 10,0 km/h (2 Bft) 0 min 0 min 12,8 km/h (3 Bft)
01.02.2012 02:38 10,8 C -6,8 C 0,0 UV-I 0,0 C 39 % 81 % 0 % 1028,2 hPa 0,0 l/m 9,2 km/h (2 Bft) 0 min 0 min 12,8 km/h (3 Bft)
01.02.2012 02:40 10,8 C -6,8 C 0,0 UV-I 0,0 C 39 % 81 % 0 % 1028,2 hPa 0,0 l/m 9,2 km/h (2 Bft) 0 min 0 min 11,6 km/h (2 Bft)
01.02.2012 02:42 10,8 C -6,9 C 0,0 UV-I 0,0 C 39 % 81 % 0 % 1028,2 hPa 0,0 l/m 8,8 km/h (2 Bft) 0 min 0 min 11,6 km/h (2 Bft)
01.02.2012 02:44 10,8 C -6,9 C 0,0 UV-I 0,0 C 39 % 81 % 0 % 1028,0 hPa 0,0 l/m 9,2 km/h (2 Bft) 0 min 0 min 12,4 km/h (3 Bft)
01.02.2012 02:46 10,8 C -6,9 C 0,0 UV-I 0,0 C 39 % 81 % 0 % 1028,0 hPa 0,0 l/m 8,4 km/h (2 Bft) 0 min 0 min 12,4 km/h (3 Bft)
01.02.2012 02:48 10,8 C -6,9 C 0,0 UV-I 0,0 C 39 % 81 % 0 % 1028,0 hPa 0,0 l/m 8,4 km/h (2 Bft) 0 min 0 min 13,3 km/h (3 Bft)
01.02.2012 02:50 10,8 C -6,8 C 0,0 UV-I 0,0 C 39 % 81 % 0 % 1028,0 hPa 0,0 l/m 8,0 km/h (2 Bft) 0 min 0 min 13,3 km/h (3 Bft)
01.02.2012 02:52 10,8 C -6,9 C 0,0 UV-I 0,0 C 39 % 81 % 0 % 1028,0 hPa 0,0 l/m 8,4 km/h (2 Bft) 0 min 0 min 19,7 km/h (3 Bft)
01.02.2012 02:54 10,8 C -7,0 C 0,0 UV-I 0,0 C 39 % 81 % 0 % 1028,0 hPa 0,0 l/m 8,0 km/h (2 Bft) 0 min 0 min 9,2 km/h (2 Bft)
01.02.2012 02:56 10,8 C -7,0 C 0,0 UV-I 0,0 C 39 % 81 % 0 % 1028,0 hPa 0,0 l/m 7,6 km/h (2 Bft) 0 min 0 min 9,2 km/h (2 Bft)
01.02.2012 02:58 10,8 C -7,0 C 0,0 UV-I 0,0 C 39 % 81 % 0 % 1028,0 hPa 0,0 l/m 7,6 km/h (2 Bft) 0 min 0 min 12,0 km/h (2 Bft)
01.02.2012 03:00 10,8 C -7,0 C 0,0 UV-I 0,0 C 39 % 81 % 0 % 1028,0 hPa 0,0 l/m 7,6 km/h (2 Bft) 0 min 0 min 12,0 km/h (2 Bft)
01.02.2012 03:02 10,8 C -7,0 C 0,0 UV-I 0,0 C 39 % 81 % 0 % 1028,0 hPa 0,0 l/m 7,6 km/h (2 Bft) 0 min 0 min 10,0 km/h (2 Bft)
01.02.2012 03:04 10,8 C -7,0 C 0,0 UV-I 0,0 C 39 % 81 % 0 % 1028,0 hPa 0,0 l/m 7,6 km/h (2 Bft) 0 min 0 min 10,0 km/h (2 Bft)
01.02.2012 03:06 10,8 C -7,0 C 0,0 UV-I 0,0 C 39 % 81 % 0 % 1028,0 hPa 0,0 l/m 8,4 km/h (2 Bft) 0 min 0 min 12,0 km/h (2 Bft)
01.02.2012 03:08 10,8 C -7,0 C 0,0 UV-I 0,0 C 39 % 81 % 0 % 1028,0 hPa 0,0 l/m 9,2 km/h (2 Bft) 0 min 0 min 12,8 km/h (3 Bft)
01.02.2012 03:10 10,8 C -7,0 C 0,0 UV-I 0,0 C 39 % 81 % 0 % 1028,0 hPa 0,0 l/m 9,2 km/h (2 Bft) 0 min 0 min 12,8 km/h (3 Bft)
01.02.2012 03:12 10,8 C -7,1 C 0,0 UV-I 0,0 C 39 % 81 % 0 % 1028,0 hPa 0,0 l/m 8,8 km/h (2 Bft) 0 min 0 min 20,1 km/h (4 Bft)
01.02.2012 03:14 10,8 C -7,1 C 0,0 UV-I 0,0 C 39 % 81 % 0 % 1028,0 hPa 0,0 l/m 8,4 km/h (2 Bft) 0 min 0 min 12,8 km/h (3 Bft)
01.02.2012 03:16 10,8 C -7,0 C 0,0 UV-I 0,0 C 39 % 81 % 0 % 1028,0 hPa 0,0 l/m 8,0 km/h (2 Bft) 0 min 0 min 8,0 km/h (2 Bft)
01.02.2012 03:18 10,8 C -7,0 C 0,0 UV-I 0,0 C 39 % 81 % 0 % 1028,0 hPa 0,0 l/m 7,6 km/h (2 Bft) 0 min 0 min 11,2 km/h (2 Bft)
01.02.2012 03:20 10,8 C -7,0 C 0,0 UV-I 0,0 C 39 % 81 % 0 % 1028,0 hPa 0,0 l/m 6,0 km/h (2 Bft) 0 min 0 min 11,2 km/h (2 Bft)
01.02.2012 03:22 10,8 C -7,0 C 0,0 UV-I 0,0 C 39 % 81 % 0 % 1028,0 hPa 0,0 l/m 6,8 km/h (2 Bft) 0 min 0 min 10,8 km/h (2 Bft)
01.02.2012 03:24 10,8 C -7,0 C 0,0 UV-I 0,0 C 39 % 81 % 0 % 1028,0 hPa 0,0 l/m 7,2 km/h (2 Bft) 0 min 0 min 16,5 km/h (3 Bft)
01.02.2012 03:26 10,8 C -7,0 C 0,0 UV-I 0,0 C 39 % 81 % 0 % 1028,0 hPa 0,0 l/m 8,8 km/h (2 Bft) 0 min 0 min 16,5 km/h (3 Bft)
01.02.2012 03:28 10,8 C -7,0 C 0,0 UV-I 0,0 C 39 % 81 % 0 % 1028,0 hPa 0,0 l/m 8,8 km/h (2 Bft) 0 min 0 min 13,3 km/h (3 Bft)
01.02.2012 03:30 10,8 C -7,0 C 0,0 UV-I 0,0 C 39 % 81 % 0 % 1028,0 hPa 0,0 l/m 8,8 km/h (2 Bft) 0 min 0 min 10,4 km/h (2 Bft)
01.02.2012 03:32 10,8 C -7,0 C 0,0 UV-I 0,0 C 39 % 81 % 0 % 1028,0 hPa 0,0 l/m 9,6 km/h (2 Bft) 0 min 0 min 10,4 km/h (2 Bft)
01.02.2012 03:34 10,6 C -7,0 C 0,0 UV-I 0,0 C 39 % 81 % 0 % 1028,0 hPa 0,0 l/m 9,2 km/h (2 Bft) 0 min 0 min 10,0 km/h (2 Bft)
01.02.2012 03:36 10,8 C -7,2 C 0,0 UV-I 0,0 C 39 % 81 % 0 % 1028,0 hPa 0,0 l/m 8,8 km/h (2 Bft) 0 min 0 min 16,5 km/h (3 Bft)
01.02.2012 03:38 10,8 C -7,2 C 0,0 UV-I 0,0 C 39 % 81 % 0 % 1028,0 hPa 0,0 l/m 9,6 km/h (2 Bft) 0 min 0 min 17,7 km/h (3 Bft)
01.02.2012 03:40 10,6 C -7,0 C 0,0 UV-I 0,0 C 39 % 81 % 0 % 1028,0 hPa 0,0 l/m 10,4 km/h (2 Bft) 0 min 0 min 17,7 km/h (3 Bft)
01.02.2012 03:42 10,8 C -7,0 C 0,0 UV-I 0,0 C 39 % 81 % 0 % 1028,0 hPa 0,0 l/m 11,2 km/h (2 Bft) 0 min 0 min 20,9 km/h (4 Bft)
01.02.2012 03:44 10,8 C -7,0 C 0,0 UV-I 0,0 C 39 % 81 % 0 % 1028,0 hPa 0,0 l/m 10,8 km/h (2 Bft) 0 min 0 min 19,3 km/h (3 Bft)
01.02.2012 03:46 10,6 C -7,2 C 0,0 UV-I 0,0 C 39 % 81 % 0 % 1028,0 hPa 0,0 l/m 11,2 km/h (2 Bft) 0 min 0 min 13,7 km/h (3 Bft)
01.02.2012 03:48 10,8 C -7,2 C 0,0 UV-I 0,0 C 39 % 81 % 0 % 1028,0 hPa 0,0 l/m 10,8 km/h (2 Bft) 0 min 0 min 13,7 km/h (3 Bft)
01.02.2012 03:50 10,6 C -7,2 C 0,0 UV-I 0,0 C 39 % 81 % 0 % 1028,0 hPa 0,0 l/m 10,0 km/h (2 Bft) 0 min 0 min 14,1 km/h (3 Bft)
01.02.2012 03:52 10,6 C -7,2 C 0,0 UV-I 0,0 C 39 % 81 % 0 % 1028,0 hPa 0,0 l/m 10,4 km/h (2 Bft) 0 min 0 min 21,3 km/h (4 Bft)
01.02.2012 03:54 10,7 C -7,2 C 0,0 UV-I 0,0 C 39 % 81 % 0 % 1028,0 hPa 0,0 l/m 10,4 km/h (2 Bft) 0 min 0 min 13,7 km/h (3 Bft)
01.02.2012 03:56 10,7 C -7,2 C 0,0 UV-I 0,0 C 39 % 81 % 0 % 1028,0 hPa 0,0 l/m 10,0 km/h (2 Bft) 0 min 0 min 16,5 km/h (3 Bft)
01.02.2012 03:58 10,7 C -7,2 C 0,0 UV-I 0,0 C 39 % 81 % 0 % 1028,0 hPa 0,0 l/m 10,4 km/h (2 Bft) 0 min 0 min 16,5 km/h (3 Bft)
01.02.2012 04:00 10,6 C -7,2 C 0,0 UV-I 0,0 C 39 % 81 % 0 % 1028,0 hPa 0,0 l/m 10,0 km/h (2 Bft) 0 min 0 min 14,1 km/h (3 Bft)
01.02.2012 04:02 10,6 C -7,2 C 0,0 UV-I 0,0 C 39 % 81 % 0 % 1028,0 hPa 0,0 l/m 10,0 km/h (2 Bft) 0 min 0 min 12,4 km/h (3 Bft)
01.02.2012 04:04 10,6 C -7,2 C 0,0 UV-I 0,0 C 39 % 81 % 0 % 1028,0 hPa 0,0 l/m 9,2 km/h (2 Bft) 0 min 0 min 11,2 km/h (2 Bft)
01.02.2012 04:06 10,7 C -7,3 C 0,0 UV-I 0,0 C 39 % 81 % 0 % 1028,0 hPa 0,0 l/m 9,6 km/h (2 Bft) 0 min 0 min 14,5 km/h (3 Bft)
01.02.2012 04:08 10,7 C -7,3 C 0,0 UV-I 0,0 C 39 % 80 % 0 % 1028,0 hPa 0,0 l/m 9,2 km/h (2 Bft) 0 min 0 min 16,1 km/h (3 Bft)
01.02.2012 04:10 10,7 C -7,3 C 0,0 UV-I 0,0 C 39 % 81 % 0 % 1028,0 hPa 0,0 l/m 9,6 km/h (2 Bft) 0 min 0 min 16,1 km/h (3 Bft)
01.02.2012 04:12 10,7 C -7,3 C 0,0 UV-I 0,0 C 39 % 80 % 0 % 1028,0 hPa 0,0 l/m 10,4 km/h (2 Bft) 0 min 0 min 24,1 km/h (4 Bft)
01.02.2012 04:14 10,7 C -7,3 C 0,0 UV-I 0,0 C 39 % 80 % 0 % 1028,0 hPa 0,0 l/m 10,4 km/h (2 Bft) 0 min 0 min 14,5 km/h (3 Bft)
01.02.2012 04:16 10,7 C -7,3 C 0,0 UV-I 0,0 C 39 % 80 % 0 % 1028,0 hPa 0,0 l/m 10,8 km/h (2 Bft) 0 min 0 min 14,5 km/h (3 Bft)
01.02.2012 04:18 10,7 C -7,3 C 0,0 UV-I 0,0 C 39 % 80 % 0 % 1028,0 hPa 0,0 l/m 10,4 km/h (2 Bft) 0 min 0 min 10,8 km/h (2 Bft)
01.02.2012 04:20 10,7 C -7,3 C 0,0 UV-I 0,0 C 39 % 80 % 0 % 1028,0 hPa 0,0 l/m 10,4 km/h (2 Bft) 0 min 0 min 13,7 km/h (3 Bft)
01.02.2012 04:22 10,7 C -7,3 C 0,0 UV-I 0,0 C 39 % 80 % 0 % 1028,0 hPa 0,0 l/m 9,6 km/h (2 Bft) 0 min 0 min 14,1 km/h (3 Bft)
01.02.2012 04:24 10,7 C -7,3 C 0,0 UV-I 0,0 C 39 % 80 % 0 % 1027,9 hPa 0,0 l/m 10,4 km/h (2 Bft) 0 min 0 min 18,1 km/h (3 Bft)
01.02.2012 04:26 10,7 C -7,2 C 0,0 UV-I 0,0 C 39 % 80 % 0 % 1027,9 hPa 0,0 l/m 9,6 km/h (2 Bft) 0 min 0 min 18,1 km/h (3 Bft)
01.02.2012 04:28 10,7 C -7,2 C 0,0 UV-I 0,0 C 39 % 80 % 0 % 1027,9 hPa 0,0 l/m 10,0 km/h (2 Bft) 0 min 0 min 9,6 km/h (2 Bft)
01.02.2012 04:30 10,7 C -7,4 C 0,0 UV-I 0,0 C 39 % 80 % 0 % 1027,9 hPa 0,0 l/m 9,6 km/h (2 Bft) 0 min 0 min 10,8 km/h (2 Bft)
01.02.2012 04:32 10,6 C -7,4 C 0,0 UV-I 0,0 C 39 % 81 % 0 % 1027,9 hPa 0,0 l/m 8,8 km/h (2 Bft) 0 min 0 min 15,7 km/h (3 Bft)
01.02.2012 04:34 10,7 C -7,4 C 0,0 UV-I 0,0 C 39 % 80 % 0 % 1027,9 hPa 0,0 l/m 9,6 km/h (2 Bft) 0 min 0 min 15,7 km/h (3 Bft)
01.02.2012 04:36 10,7 C -7,4 C 0,0 UV-I 0,0 C 39 % 80 % 0 % 1027,9 hPa 0,0 l/m 9,2 km/h (2 Bft) 0 min 0 min 12,4 km/h (3 Bft)
01.02.2012 04:38 10,7 C -7,4 C 0,0 UV-I 0,0 C 39 % 80 % 0 % 1027,9 hPa 0,0 l/m 9,2 km/h (2 Bft) 0 min 0 min 9,6 km/h (2 Bft)
01.02.2012 04:40 10,6 C -7,4 C 0,0 UV-I 0,0 C 39 % 80 % 0 % 1027,9 hPa 0,0 l/m 9,2 km/h (2 Bft) 0 min 0 min 10,4 km/h (2 Bft)
01.02.2012 04:42 10,7 C -7,4 C 0,0 UV-I 0,0 C 39 % 80 % 0 % 1027,9 hPa 0,0 l/m 9,6 km/h (2 Bft) 0 min 0 min 10,4 km/h (2 Bft)
01.02.2012 04:44 10,7 C -7,4 C 0,0 UV-I 0,0 C 39 % 80 % 0 % 1027,9 hPa 0,0 l/m 8,8 km/h (2 Bft) 0 min 0 min 29,7 km/h (5 Bft)
01.02.2012 04:46 10,6 C -7,4 C 0,0 UV-I 0,0 C 39 % 80 % 0 % 1027,9 hPa 0,0 l/m 8,4 km/h (2 Bft) 0 min 0 min 29,7 km/h (5 Bft)
01.02.2012 04:48 10,6 C -7,4 C 0,0 UV-I 0,0 C 39 % 80 % 0 % 1027,9 hPa 0,0 l/m 8,4 km/h (2 Bft) 0 min 0 min 12,8 km/h (3 Bft)
01.02.2012 04:50 10,6 C -7,4 C 0,0 UV-I 0,0 C 39 % 80 % 0 % 1027,9 hPa 0,0 l/m 8,8 km/h (2 Bft) 0 min 0 min 12,8 km/h (3 Bft)
01.02.2012 04:52 10,6 C -7,4 C 0,0 UV-I 0,0 C 39 % 80 % 0 % 1027,9 hPa 0,0 l/m 8,8 km/h (2 Bft) 0 min 0 min 29,7 km/h (5 Bft)
01.02.2012 04:54 10,6 C -7,4 C 0,0 UV-I 0,0 C 39 % 80 % 0 % 1027,9 hPa 0,0 l/m 9,6 km/h (2 Bft) 0 min 0 min 15,3 km/h (3 Bft)
01.02.2012 04:56 10,6 C -7,4 C 0,0 UV-I 0,0 C 39 % 80 % 0 % 1027,9 hPa 0,0 l/m 9,2 km/h (2 Bft) 0 min 0 min 12,0 km/h (2 Bft)
01.02.2012 04:58 10,6 C -7,4 C 0,0 UV-I 0,0 C 39 % 80 % 0 % 1027,9 hPa 0,0 l/m 9,2 km/h (2 Bft) 0 min 0 min 12,0 km/h (2 Bft)
01.02.2012 05:00 10,6 C -7,4 C 0,0 UV-I 0,0 C 39 % 80 % 0 % 1027,9 hPa 0,0 l/m 8,0 km/h (2 Bft) 0 min 0 min 10,4 km/h (2 Bft)
01.02.2012 05:02 10,6 C -7,4 C 0,0 UV-I 0,0 C 39 % 80 % 0 % 1027,9 hPa 0,0 l/m 7,6 km/h (2 Bft) 0 min 0 min 5,6 km/h (1 Bft)
01.02.2012 05:04 10,6 C -7,4 C 0,0 UV-I 0,0 C 39 % 80 % 0 % 1028,2 hPa 0,0 l/m 6,4 km/h (2 Bft) 0 min 0 min 6,8 km/h (2 Bft)
01.02.2012 05:06 10,6 C -7,4 C 0,0 UV-I 0,0 C 39 % 80 % 0 % 1028,2 hPa 0,0 l/m 6,4 km/h (2 Bft) 0 min 0 min 10,8 km/h (2 Bft)
01.02.2012 05:08 10,6 C -7,4 C 0,0 UV-I 0,0 C 39 % 80 % 0 % 1028,2 hPa 0,0 l/m 6,4 km/h (2 Bft) 0 min 0 min 14,1 km/h (3 Bft)
01.02.2012 05:10 10,6 C -7,5 C 0,0 UV-I 0,0 C 39 % 81 % 0 % 1028,2 hPa 0,0 l/m 6,0 km/h (2 Bft) 0 min 0 min 14,1 km/h (3 Bft)
01.02.2012 05:12 10,6 C -7,4 C 0,0 UV-I 0,0 C 39 % 80 % 0 % 1028,2 hPa 0,0 l/m 5,6 km/h (1 Bft) 0 min 0 min 7,2 km/h (2 Bft)
01.02.2012 05:14 10,6 C -7,4 C 0,0 UV-I 0,0 C 39 % 81 % 0 % 1028,2 hPa 0,0 l/m 6,0 km/h (2 Bft) 0 min 0 min 9,6 km/h (2 Bft)
01.02.2012 05:16 10,6 C -7,4 C 0,0 UV-I 0,0 C 39 % 80 % 0 % 1028,2 hPa 0,0 l/m 5,6 km/h (1 Bft) 0 min 0 min 9,6 km/h (2 Bft)
01.02.2012 05:18 10,6 C -7,4 C 0,0 UV-I 0,0 C 39 % 80 % 0 % 1028,2 hPa 0,0 l/m 5,2 km/h (1 Bft) 0 min 0 min 5,6 km/h (1 Bft)
01.02.2012 05:20 10,6 C -7,4 C 0,0 UV-I 0,0 C 39 % 81 % 0 % 1028,2 hPa 0,0 l/m 4,8 km/h (1 Bft) 0 min 0 min 5,6 km/h (1 Bft)
01.02.2012 05:22 10,6 C -7,4 C 0,0 UV-I 0,0 C 39 % 81 % 0 % 1028,2 hPa 0,0 l/m 4,0 km/h (1 Bft) 0 min 0 min 4,0 km/h (1 Bft)
01.02.2012 05:24 10,6 C -7,4 C 0,0 UV-I 0,0 C 39 % 81 % 0 % 1028,2 hPa 0,0 l/m 3,6 km/h (1 Bft) 0 min 0 min 4,0 km/h (1 Bft)
01.02.2012 05:26 10,6 C -7,6 C 0,0 UV-I 0,0 C 39 % 81 % 0 % 1028,2 hPa 0,0 l/m 2,8 km/h (1 Bft) 0 min 0 min 5,2 km/h (1 Bft)
01.02.2012 05:28 10,6 C -7,6 C 0,0 UV-I 0,0 C 39 % 81 % 0 % 1028,2 hPa 0,0 l/m 3,2 km/h (1 Bft) 0 min 0 min 5,2 km/h (1 Bft)
01.02.2012 05:30 10,6 C -7,6 C 0,0 UV-I 0,0 C 39 % 81 % 0 % 1028,2 hPa 0,0 l/m 3,6 km/h (1 Bft) 0 min 0 min 7,6 km/h (2 Bft)
01.02.2012 05:32 10,4 C -7,6 C 0,0 UV-I 0,0 C 39 % 81 % 0 % 1028,2 hPa 0,0 l/m 3,2 km/h (1 Bft) 0 min 0 min 7,6 km/h (2 Bft)
01.02.2012 05:34 10,4 C -7,6 C 0,0 UV-I 0,0 C 39 % 81 % 0 % 1028,2 hPa 0,0 l/m 4,0 km/h (1 Bft) 0 min 0 min 10,0 km/h (2 Bft)
01.02.2012 05:36 10,4 C -7,6 C 0,0 UV-I 0,0 C 39 % 81 % 0 % 1028,2 hPa 0,0 l/m 4,8 km/h (1 Bft) 0 min 0 min 10,0 km/h (2 Bft)
01.02.2012 05:38 10,4 C -7,6 C 0,0 UV-I 0,0 C 39 % 81 % 0 % 1028,2 hPa 0,0 l/m 5,6 km/h (1 Bft) 0 min 0 min 11,2 km/h (2 Bft)
01.02.2012 05:40 10,4 C -7,6 C 0,0 UV-I 0,0 C 39 % 81 % 0 % 1028,2 hPa 0,0 l/m 5,6 km/h (1 Bft) 0 min 0 min 11,2 km/h (2 Bft)
01.02.2012 05:42 10,4 C -7,6 C 0,0 UV-I 0,0 C 39 % 81 % 0 % 1028,2 hPa 0,0 l/m 5,6 km/h (1 Bft) 0 min 0 min 4,8 km/h (1 Bft)
01.02.2012 05:44 10,4 C -7,6 C 0,0 UV-I 0,0 C 39 % 81 % 0 % 1028,2 hPa 0,0 l/m 6,0 km/h (2 Bft) 0 min 0 min 4,8 km/h (1 Bft)
01.02.2012 05:46 10,4 C -7,6 C 0,0 UV-I 0,0 C 39 % 81 % 0 % 1028,2 hPa 0,0 l/m 5,6 km/h (1 Bft) 0 min 0 min 9,6 km/h (2 Bft)
01.02.2012 05:48 10,4 C -7,6 C 0,0 UV-I 0,0 C 39 % 81 % 0 % 1028,2 hPa 0,0 l/m 5,2 km/h (1 Bft) 0 min 0 min 9,6 km/h (2 Bft)
01.02.2012 05:50 10,5 C -7,7 C 0,0 UV-I 0,0 C 39 % 81 % 0 % 1028,2 hPa 0,0 l/m 4,4 km/h (1 Bft) 0 min 0 min 8,4 km/h (2 Bft)
01.02.2012 05:52 10,5 C -7,7 C 0,0 UV-I 0,0 C 39 % 81 % 0 % 1028,2 hPa 0,0 l/m 5,2 km/h (1 Bft) 0 min 0 min 8,4 km/h (2 Bft)
01.02.2012 05:54 10,5 C -7,7 C 0,0 UV-I 0,0 C 39 % 81 % 0 % 1028,2 hPa 0,0 l/m 5,6 km/h (1 Bft) 0 min 0 min 7,6 km/h (2 Bft)
01.02.2012 05:56 10,5 C -7,7 C 0,0 UV-I 0,0 C 39 % 81 % 0 % 1028,2 hPa 0,0 l/m 6,0 km/h (2 Bft) 0 min 0 min 6,4 km/h (2 Bft)
01.02.2012 05:58 10,3 C -7,7 C 0,0 UV-I 0,0 C 39 % 81 % 0 % 1028,2 hPa 0,0 l/m 6,0 km/h (2 Bft) 0 min 0 min 8,8 km/h (2 Bft)
01.02.2012 06:00 10,3 C -7,7 C 0,0 UV-I 0,0 C 39 % 81 % 0 % 1028,2 hPa 0,0 l/m 6,4 km/h (2 Bft) 0 min 0 min 9,2 km/h (2 Bft)
01.02.2012 06:02 10,3 C -7,6 C 0,0 UV-I 0,0 C 39 % 81 % 0 % 1028,2 hPa 0,0 l/m 6,8 km/h (2 Bft) 0 min 0 min 9,2 km/h (2 Bft)
01.02.2012 06:04 10,3 C -7,6 C 0,0 UV-I 0,0 C 39 % 81 % 0 % 1028,6 hPa 0,0 l/m 6,8 km/h (2 Bft) 0 min 0 min 4,8 km/h (1 Bft)
01.02.2012 06:06 10,3 C -7,6 C 0,0 UV-I 0,0 C 38 % 81 % 0 % 1028,6 hPa 0,0 l/m 6,8 km/h (2 Bft) 0 min 0 min 4,8 km/h (1 Bft)
01.02.2012 06:08 10,3 C -7,6 C 0,0 UV-I 0,0 C 39 % 81 % 0 % 1028,6 hPa 0,0 l/m 7,6 km/h (2 Bft) 0 min 0 min 9,2 km/h (2 Bft)
01.02.2012 06:10 10,3 C -7,6 C 0,0 UV-I 0,0 C 38 % 81 % 0 % 1028,6 hPa 0,0 l/m 7,6 km/h (2 Bft) 0 min 0 min 9,2 km/h (2 Bft)
01.02.2012 06:12 10,3 C -7,6 C 0,0 UV-I 0,0 C 38 % 81 % 0 % 1028,6 hPa 0,0 l/m 8,0 km/h (2 Bft) 0 min 0 min 7,2 km/h (2 Bft)
01.02.2012 06:14 10,3 C -7,6 C 0,0 UV-I 0,0 C 38 % 81 % 0 % 1028,6 hPa 0,0 l/m 8,0 km/h (2 Bft) 0 min 0 min 9,2 km/h (2 Bft)
01.02.2012 06:16 10,3 C -7,7 C 0,0 UV-I 0,0 C 38 % 81 % 0 % 1028,6 hPa 0,0 l/m 7,6 km/h (2 Bft) 0 min 0 min 10,0 km/h (2 Bft)
01.02.2012 06:18 10,4 C -7,7 C 0,0 UV-I 0,0 C 38 % 81 % 0 % 1028,6 hPa 0,0 l/m 6,8 km/h (2 Bft) 0 min 0 min 10,8 km/h (2 Bft)
01.02.2012 06:20 10,3 C -7,7 C 0,0 UV-I 0,0 C 39 % 81 % 0 % 1028,6 hPa 0,0 l/m 6,4 km/h (2 Bft) 0 min 0 min 10,8 km/h (2 Bft)
01.02.2012 06:22 10,4 C -7,7 C 0,0 UV-I 0,0 C 39 % 82 % 0 % 1028,6 hPa 0,0 l/m 6,4 km/h (2 Bft) 0 min 0 min 9,6 km/h (2 Bft)
01.02.2012 06:24 10,4 C -7,7 C 0,0 UV-I 0,0 C 39 % 82 % 0 % 1028,6 hPa 0,0 l/m 6,8 km/h (2 Bft) 0 min 0 min 9,6 km/h (2 Bft)
01.02.2012 06:26 10,4 C -7,6 C 0,0 UV-I 0,0 C 38 % 82 % 0 % 1028,6 hPa 0,0 l/m 6,8 km/h (2 Bft) 0 min 0 min 8,8 km/h (2 Bft)
01.02.2012 06:28 10,4 C -7,6 C 0,0 UV-I 0,0 C 38 % 82 % 0 % 1028,6 hPa 0,0 l/m 6,8 km/h (2 Bft) 0 min 0 min 8,0 km/h (2 Bft)
01.02.2012 06:30 10,4 C -7,7 C 0,0 UV-I 0,0 C 38 % 82 % 0 % 1028,6 hPa 0,0 l/m 7,2 km/h (2 Bft) 0 min 0 min 8,4 km/h (2 Bft)
01.02.2012 06:32 10,4 C -7,6 C 0,0 UV-I 0,0 C 39 % 82 % 0 % 1028,6 hPa 0,0 l/m 7,2 km/h (2 Bft) 0 min 0 min 8,4 km/h (2 Bft)
01.02.2012 06:34 10,4 C -7,6 C 0,0 UV-I 0,0 C 38 % 82 % 0 % 1028,6 hPa 0,0 l/m 6,8 km/h (2 Bft) 0 min 0 min 9,2 km/h (2 Bft)
01.02.2012 06:36 10,4 C -7,6 C 0,0 UV-I 0,0 C 38 % 82 % 0 % 1028,6 hPa 0,0 l/m 6,4 km/h (2 Bft) 0 min 0 min 9,2 km/h (2 Bft)
01.02.2012 06:38 10,4 C -7,8 C 0,0 UV-I 0,0 C 39 % 82 % 0 % 1028,6 hPa 0,0 l/m 6,8 km/h (2 Bft) 0 min 0 min 10,0 km/h (2 Bft)
01.02.2012 06:40 10,4 C -7,8 C 0,0 UV-I 0,0 C 38 % 82 % 0 % 1028,6 hPa 0,0 l/m 6,8 km/h (2 Bft) 0 min 0 min 10,0 km/h (2 Bft)
01.02.2012 06:42 10,4 C -7,8 C 0,0 UV-I 0,0 C 38 % 82 % 0 % 1028,6 hPa 0,0 l/m 6,8 km/h (2 Bft) 0 min 0 min 8,8 km/h (2 Bft)
01.02.2012 06:44 10,4 C -7,8 C 0,0 UV-I 0,0 C 38 % 82 % 0 % 1028,6 hPa 0,0 l/m 6,8 km/h (2 Bft) 0 min 0 min 10,0 km/h (2 Bft)
01.02.2012 06:46 10,4 C -7,8 C 0,0 UV-I 0,0 C 38 % 82 % 0 % 1028,6 hPa 0,0 l/m 7,2 km/h (2 Bft) 0 min 0 min 15,3 km/h (3 Bft)
01.02.2012 06:48 10,4 C -7,8 C 0,0 UV-I 0,0 C 38 % 82 % 0 % 1028,6 hPa 0,0 l/m 7,2 km/h (2 Bft) 0 min 0 min 15,3 km/h (3 Bft)
01.02.2012 06:50 10,4 C -7,8 C 0,0 UV-I 0,0 C 38 % 82 % 0 % 1028,6 hPa 0,0 l/m 6,8 km/h (2 Bft) 0 min 0 min 10,4 km/h (2 Bft)
01.02.2012 06:52 10,4 C -7,6 C 0,0 UV-I 0,0 C 38 % 82 % 0 % 1028,6 hPa 0,0 l/m 6,4 km/h (2 Bft) 0 min 0 min 8,4 km/h (2 Bft)
01.02.2012 06:54 10,4 C -7,8 C 0,0 UV-I 0,0 C 38 % 82 % 0 % 1028,6 hPa 0,0 l/m 7,2 km/h (2 Bft) 0 min 0 min 8,4 km/h (2 Bft)
01.02.2012 06:56 10,4 C -7,6 C 0,0 UV-I 0,0 C 38 % 82 % 0 % 1028,6 hPa 0,0 l/m 8,0 km/h (2 Bft) 0 min 0 min 9,2 km/h (2 Bft)
01.02.2012 06:58 10,4 C -7,7 C 0,0 UV-I 0,0 C 38 % 82 % 0 % 1028,6 hPa 0,0 l/m 7,2 km/h (2 Bft) 0 min 0 min 9,2 km/h (2 Bft)
01.02.2012 07:00 10,4 C -7,6 C 0,0 UV-I 0,0 C 38 % 82 % 0 % 1028,6 hPa 0,0 l/m 7,2 km/h (2 Bft) 0 min 0 min 9,6 km/h (2 Bft)
01.02.2012 07:02 10,4 C -7,6 C 0,0 UV-I 0,0 C 38 % 82 % 0 % 1028,6 hPa 0,0 l/m 6,8 km/h (2 Bft) 0 min 0 min 9,6 km/h (2 Bft)
01.02.2012 07:04 10,4 C -7,6 C 0,0 UV-I 0,0 C 38 % 82 % 0 % 1028,6 hPa 0,0 l/m 6,8 km/h (2 Bft) 0 min 0 min 9,6 km/h (2 Bft)
01.02.2012 07:06 10,4 C -7,8 C 0,0 UV-I 0,0 C 38 % 82 % 0 % 1028,6 hPa 0,0 l/m 6,4 km/h (2 Bft) 0 min 0 min 9,6 km/h (2 Bft)
01.02.2012 07:08 10,2 C -7,8 C 0,0 UV-I 0,0 C 38 % 82 % 0 % 1028,6 hPa 0,0 l/m 5,6 km/h (1 Bft) 0 min 0 min 9,2 km/h (2 Bft)
01.02.2012 07:10 10,4 C -7,8 C 0,0 UV-I 0,0 C 38 % 82 % 0 % 1028,6 hPa 0,0 l/m 5,6 km/h (1 Bft) 0 min 0 min 7,6 km/h (2 Bft)
01.02.2012 07:12 10,4 C -7,8 C 0,0 UV-I 0,0 C 38 % 82 % 0 % 1028,6 hPa 0,0 l/m 5,2 km/h (1 Bft) 0 min 0 min 7,6 km/h (2 Bft)
01.02.2012 07:14 10,2 C -7,8 C 0,0 UV-I 0,0 C 38 % 82 % 0 % 1028,6 hPa 0,0 l/m 5,2 km/h (1 Bft) 0 min 0 min 8,8 km/h (2 Bft)
01.02.2012 07:16 10,2 C -7,8 C 0,0 UV-I 0,0 C 38 % 82 % 0 % 1028,6 hPa 0,0 l/m 5,6 km/h (1 Bft) 0 min 0 min 10,4 km/h (2 Bft)
01.02.2012 07:18 10,2 C -7,8 C 0,0 UV-I 0,0 C 38 % 82 % 0 % 1028,6 hPa 0,0 l/m 5,6 km/h (1 Bft) 0 min 0 min 10,4 km/h (2 Bft)
01.02.2012 07:20 10,2 C -7,8 C 0,0 UV-I 0,0 C 38 % 82 % 0 % 1028,6 hPa 0,0 l/m 6,4 km/h (2 Bft) 0 min 0 min 8,0 km/h (2 Bft)
01.02.2012 07:22 10,2 C -7,8 C 0,0 UV-I 0,0 C 38 % 82 % 0 % 1028,6 hPa 0,0 l/m 6,4 km/h (2 Bft) 0 min 0 min 10,0 km/h (2 Bft)
01.02.2012 07:24 10,2 C -7,8 C 0,0 UV-I 0,0 C 38 % 82 % 0 % 1028,6 hPa 0,0 l/m 6,8 km/h (2 Bft) 0 min 0 min 10,0 km/h (2 Bft)
01.02.2012 07:26 10,2 C -7,8 C 0,0 UV-I 0,0 C 38 % 82 % 0 % 1028,6 hPa 0,0 l/m 6,8 km/h (2 Bft) 0 min 0 min 8,0 km/h (2 Bft)
01.02.2012 07:28 10,2 C -7,8 C 0,0 UV-I 0,0 C 38 % 82 % 0 % 1028,6 hPa 0,0 l/m 5,6 km/h (1 Bft) 0 min 0 min 8,0 km/h (2 Bft)
01.02.2012 07:30 10,2 C -7,8 C 0,0 UV-I 0,0 C 38 % 82 % 0 % 1028,6 hPa 0,0 l/m 5,2 km/h (1 Bft) 0 min 0 min 8,8 km/h (2 Bft)
01.02.2012 07:32 10,2 C -7,8 C 0,0 UV-I 0,0 C 38 % 82 % 0 % 1028,6 hPa 0,0 l/m 4,8 km/h (1 Bft) 0 min 0 min 8,8 km/h (2 Bft)
01.02.2012 07:34 10,3 C -7,8 C 0,0 UV-I 0,0 C 38 % 82 % 0 % 1028,6 hPa 0,0 l/m 4,8 km/h (1 Bft) 0 min 0 min 7,6 km/h (2 Bft)
01.02.2012 07:36 10,3 C -7,8 C 0,0 UV-I 0,0 C 38 % 82 % 0 % 1028,6 hPa 0,0 l/m 4,8 km/h (1 Bft) 0 min 0 min 7,6 km/h (2 Bft)
01.02.2012 07:38 10,3 C -7,8 C 0,0 UV-I 0,0 C 38 % 82 % 0 % 1028,6 hPa 0,0 l/m 4,8 km/h (1 Bft) 0 min 0 min 5,6 km/h (1 Bft)
01.02.2012 07:40 10,3 C -7,8 C 0,0 UV-I 0,0 C 38 % 82 % 0 % 1028,6 hPa 0,0 l/m 6,8 km/h (2 Bft) 0 min 0 min 9,2 km/h (2 Bft)
01.02.2012 07:42 10,3 C -7,8 C 0,0 UV-I 0,0 C 38 % 82 % 0 % 1028,6 hPa 0,0 l/m 6,8 km/h (2 Bft) 0 min 0 min 9,2 km/h (2 Bft)
01.02.2012 07:44 10,3 C -7,8 C 0,0 UV-I 0,0 C 38 % 82 % 0 % 1028,6 hPa 0,0 l/m 6,8 km/h (2 Bft) 0 min 0 min 7,6 km/h (2 Bft)
01.02.2012 07:46 10,3 C -7,8 C 0,0 UV-I 0,0 C 38 % 82 % 0 % 1028,6 hPa 0,0 l/m 5,6 km/h (1 Bft) 0 min 0 min 7,6 km/h (2 Bft)
01.02.2012 07:48 10,3 C -7,8 C 0,0 UV-I 0,0 C 38 % 82 % 0 % 1028,6 hPa 0,0 l/m 4,8 km/h (1 Bft) 0 min 0 min 5,2 km/h (1 Bft)
01.02.2012 07:50 10,3 C -7,8 C 0,0 UV-I 0,0 C 38 % 82 % 0 % 1028,6 hPa 0,0 l/m 5,2 km/h (1 Bft) 0 min 0 min 7,6 km/h (2 Bft)
01.02.2012 07:52 10,3 C -7,8 C 0,0 UV-I 0,0 C 38 % 82 % 0 % 1028,6 hPa 0,0 l/m 4,8 km/h (1 Bft) 0 min 0 min 7,6 km/h (2 Bft)
01.02.2012 07:54 10,3 C -7,8 C 0,0 UV-I 0,0 C 38 % 82 % 0 % 1028,6 hPa 0,0 l/m 5,2 km/h (1 Bft) 0 min 0 min 10,4 km/h (2 Bft)
01.02.2012 07:56 10,3 C -7,8 C 0,0 UV-I 0,0 C 38 % 82 % 0 % 1028,6 hPa 0,0 l/m 6,4 km/h (2 Bft) 0 min 0 min 13,7 km/h (3 Bft)
01.02.2012 07:58 10,3 C -7,8 C 0,0 UV-I 0,0 C 38 % 82 % 0 % 1028,6 hPa 0,0 l/m 7,2 km/h (2 Bft) 0 min 0 min 13,7 km/h (3 Bft)
01.02.2012 08:00 10,3 C -7,8 C 0,0 UV-I 0,0 C 38 % 82 % 0 % 1028,6 hPa 0,0 l/m 8,0 km/h (2 Bft) 0 min 0 min 11,6 km/h (2 Bft)
01.02.2012 08:02 10,3 C -7,8 C 0,0 UV-I 0,0 C 38 % 82 % 0 % 1028,6 hPa 0,0 l/m 8,0 km/h (2 Bft) 0 min 0 min 11,6 km/h (2 Bft)
01.02.2012 08:04 10,3 C -7,8 C 0,0 UV-I 0,0 C 38 % 82 % 0 % 1028,6 hPa 0,0 l/m 8,0 km/h (2 Bft) 0 min 0 min 0,0 km/h (0 Bft)
01.02.2012 08:06 10,1 C -7,8 C 0,0 UV-I 0,0 C 38 % 82 % 0 % 1028,6 hPa 0,0 l/m 6,8 km/h (2 Bft) 0 min 0 min 8,8 km/h (2 Bft)
01.02.2012 08:08 10,3 C -7,8 C 0,0 UV-I 0,0 C 38 % 82 % 0 % 1028,6 hPa 0,0 l/m 7,2 km/h (2 Bft) 0 min 0 min 14,1 km/h (3 Bft)
01.02.2012 08:10 10,3 C -7,6 C 0,0 UV-I 0,0 C 38 % 82 % 0 % 1028,6 hPa 0,0 l/m 6,8 km/h (2 Bft) 0 min 0 min 14,1 km/h (3 Bft)
01.02.2012 08:12 10,3 C -7,8 C 0,0 UV-I 0,0 C 38 % 82 % 0 % 1028,6 hPa 0,0 l/m 6,0 km/h (2 Bft) 0 min 0 min 10,8 km/h (2 Bft)
01.02.2012 08:14 10,3 C -7,8 C 0,0 UV-I 0,0 C 38 % 82 % 0 % 1028,6 hPa 0,0 l/m 4,8 km/h (1 Bft) 0 min 0 min 4,8 km/h (1 Bft)
01.02.2012 08:16 10,3 C -7,8 C 0,0 UV-I 0,0 C 38 % 82 % 0 % 1028,6 hPa 0,0 l/m 5,6 km/h (1 Bft) 0 min 0 min 9,2 km/h (2 Bft)
01.02.2012 08:18 10,1 C -7,8 C 0,0 UV-I 0,0 C 38 % 82 % 0 % 1028,6 hPa 0,0 l/m 6,4 km/h (2 Bft) 0 min 0 min 17,3 km/h (3 Bft)
01.02.2012 08:20 10,1 C -7,8 C 0,0 UV-I 0,0 C 38 % 81 % 0 % 1028,6 hPa 0,0 l/m 6,4 km/h (2 Bft) 0 min 0 min 17,3 km/h (3 Bft)
01.02.2012 08:22 10,1 C -7,8 C 0,0 UV-I 0,0 C 38 % 81 % 0 % 1028,6 hPa 0,0 l/m 6,4 km/h (2 Bft) 0 min 0 min 11,6 km/h (2 Bft)
01.02.2012 08:24 10,1 C -7,8 C 0,0 UV-I 0,0 C 38 % 81 % 0 % 1028,6 hPa 0,0 l/m 7,2 km/h (2 Bft) 0 min 0 min 11,6 km/h (2 Bft)
01.02.2012 08:26 10,1 C -7,7 C 0,0 UV-I 0,0 C 38 % 81 % 0 % 1028,6 hPa 0,0 l/m 8,0 km/h (2 Bft) 0 min 0 min 11,6 km/h (2 Bft)
01.02.2012 08:28 10,3 C -7,6 C 0,0 UV-I 0,0 C 38 % 81 % 0 % 1028,6 hPa 0,0 l/m 8,0 km/h (2 Bft) 0 min 0 min 11,6 km/h (2 Bft)
01.02.2012 08:30 10,1 C -7,6 C 0,0 UV-I 0,0 C 38 % 81 % 0 % 1028,6 hPa 0,0 l/m 7,6 km/h (2 Bft) 0 min 0 min 14,5 km/h (3 Bft)
01.02.2012 08:32 10,3 C -7,6 C 0,0 UV-I 0,0 C 38 % 81 % 0 % 1028,6 hPa 0,0 l/m 8,0 km/h (2 Bft) 0 min 0 min 15,7 km/h (3 Bft)
01.02.2012 08:34 10,1 C -7,6 C 0,0 UV-I 0,0 C 38 % 81 % 0 % 1028,6 hPa 0,0 l/m 8,0 km/h (2 Bft) 0 min 0 min 15,7 km/h (3 Bft)
01.02.2012 08:36 10,1 C -7,7 C 0,0 UV-I 0,0 C 38 % 81 % 0 % 1028,6 hPa 0,0 l/m 7,2 km/h (2 Bft) 0 min 0 min 8,8 km/h (2 Bft)
01.02.2012 08:38 10,1 C -7,7 C 0,0 UV-I 0,0 C 38 % 81 % 0 % 1028,6 hPa 0,0 l/m 6,4 km/h (2 Bft) 0 min 0 min 8,4 km/h (2 Bft)
01.02.2012 08:40 10,1 C -7,7 C 0,0 UV-I 0,0 C 38 % 81 % 0 % 1028,6 hPa 0,0 l/m 6,0 km/h (2 Bft) 0 min 0 min 8,4 km/h (2 Bft)
01.02.2012 08:42 10,1 C -7,7 C 0,0 UV-I 0,0 C 38 % 81 % 0 % 1028,6 hPa 0,0 l/m 5,2 km/h (1 Bft) 0 min 0 min 7,6 km/h (2 Bft)
01.02.2012 08:44 10,1 C -7,7 C 0,0 UV-I 0,0 C 38 % 81 % 0 % 1028,6 hPa 0,0 l/m 5,2 km/h (1 Bft) 0 min 0 min 11,2 km/h (2 Bft)
01.02.2012 08:46 10,3 C -7,7 C 0,0 UV-I 0,0 C 38 % 81 % 0 % 1028,6 hPa 0,0 l/m 5,6 km/h (1 Bft) 0 min 0 min 11,2 km/h (2 Bft)
01.02.2012 08:48 10,2 C -7,7 C 0,0 UV-I 0,0 C 38 % 81 % 0 % 1028,6 hPa 0,0 l/m 6,4 km/h (2 Bft) 0 min 0 min 9,2 km/h (2 Bft)
01.02.2012 08:50 10,1 C -7,6 C 0,0 UV-I 0,0 C 38 % 81 % 0 % 1028,6 hPa 0,0 l/m 6,0 km/h (2 Bft) 0 min 0 min 9,2 km/h (2 Bft)
01.02.2012 08:52 10,2 C -7,6 C 0,0 UV-I 0,0 C 38 % 81 % 0 % 1028,6 hPa 0,0 l/m 6,4 km/h (2 Bft) 0 min 0 min 9,2 km/h (2 Bft)
01.02.2012 08:54 10,1 C -7,6 C 0,0 UV-I 0,0 C 38 % 81 % 0 % 1028,6 hPa 0,0 l/m 6,4 km/h (2 Bft) 0 min 0 min 10,4 km/h (2 Bft)
01.02.2012 08:56 10,1 C -7,6 C 0,0 UV-I 0,0 C 38 % 81 % 0 % 1028,6 hPa 0,0 l/m 6,0 km/h (2 Bft) 0 min 0 min 10,4 km/h (2 Bft)
01.02.2012 08:58 10,2 C -7,4 C 0,0 UV-I 0,0 C 38 % 81 % 0 % 1028,6 hPa 0,0 l/m 5,6 km/h (1 Bft) 0 min 0 min 9,2 km/h (2 Bft)
01.02.2012 09:00 10,2 C -7,4 C 0,0 UV-I 0,0 C 38 % 81 % 0 % 1028,6 hPa 0,0 l/m 5,6 km/h (1 Bft) 0 min 0 min 7,6 km/h (2 Bft)
01.02.2012 09:02 10,2 C -7,6 C 0,0 UV-I 0,0 C 38 % 81 % 0 % 1028,6 hPa 0,0 l/m 6,0 km/h (2 Bft) 0 min 0 min 19,7 km/h (3 Bft)
01.02.2012 09:04 10,2 C -7,6 C 0,0 UV-I 0,0 C 38 % 81 % 0 % 1028,6 hPa 0,0 l/m 6,8 km/h (2 Bft) 0 min 0 min 9,6 km/h (2 Bft)
01.02.2012 09:06 10,2 C -7,4 C 0,0 UV-I 0,0 C 38 % 80 % 0 % 1028,6 hPa 0,0 l/m 6,8 km/h (2 Bft) 0 min 0 min 10,8 km/h (2 Bft)
01.02.2012 09:08 10,2 C -7,4 C 0,0 UV-I 0,0 C 38 % 80 % 0 % 1028,6 hPa 0,0 l/m 7,6 km/h (2 Bft) 0 min 0 min 10,8 km/h (2 Bft)
01.02.2012 09:10 10,2 C -7,4 C 0,0 UV-I 0,0 C 38 % 80 % 0 % 1028,6 hPa 0,0 l/m 7,6 km/h (2 Bft) 0 min 0 min 8,4 km/h (2 Bft)
01.02.2012 09:12 10,1 C -7,4 C 0,0 UV-I 0,0 C 38 % 80 % 0 % 1028,6 hPa 0,0 l/m 8,4 km/h (2 Bft) 0 min 0 min 14,1 km/h (3 Bft)
01.02.2012 09:14 10,2 C -7,4 C 0,0 UV-I 0,0 C 38 % 80 % 0 % 1028,6 hPa 0,0 l/m 8,4 km/h (2 Bft) 0 min 0 min 14,1 km/h (3 Bft)
01.02.2012 09:16 10,2 C -7,4 C 0,0 UV-I 0,0 C 38 % 80 % 0 % 1028,6 hPa 0,0 l/m 8,8 km/h (2 Bft) 0 min 0 min 13,7 km/h (3 Bft)
01.02.2012 09:18 10,1 C -7,4 C 0,0 UV-I 0,0 C 38 % 80 % 0 % 1028,6 hPa 0,0 l/m 8,8 km/h (2 Bft) 0 min 0 min 32,1 km/h (5 Bft)
01.02.2012 09:20 10,1 C -7,3 C 0,0 UV-I 0,0 C 38 % 80 % 0 % 1028,6 hPa 0,0 l/m 9,2 km/h (2 Bft) 0 min 0 min 32,1 km/h (5 Bft)
01.02.2012 09:22 10,2 C -7,3 C 0,0 UV-I 0,0 C 38 % 80 % 0 % 1028,6 hPa 0,0 l/m 9,6 km/h (2 Bft) 0 min 0 min 32,1 km/h (5 Bft)
01.02.2012 09:24 10,2 C -7,3 C 0,0 UV-I 0,0 C 38 % 80 % 0 % 1029,3 hPa 0,0 l/m 8,8 km/h (2 Bft) 0 min 0 min 11,2 km/h (2 Bft)
01.02.2012 09:26 10,1 C -7,2 C 0,0 UV-I 0,0 C 38 % 79 % 0 % 1029,3 hPa 0,0 l/m 8,8 km/h (2 Bft) 0 min 0 min 9,6 km/h (2 Bft)
01.02.2012 09:28 10,2 C -7,2 C 0,0 UV-I 0,0 C 38 % 80 % 0 % 1029,3 hPa 0,0 l/m 8,8 km/h (2 Bft) 0 min 0 min 12,8 km/h (3 Bft)
01.02.2012 09:30 10,2 C -7,0 C 0,0 UV-I 0,0 C 38 % 80 % 0 % 1029,3 hPa 0,0 l/m 7,6 km/h (2 Bft) 0 min 0 min 12,8 km/h (3 Bft)
01.02.2012 09:32 10,2 C -7,0 C 0,0 UV-I 0,0 C 38 % 79 % 0 % 1029,3 hPa 0,0 l/m 7,6 km/h (2 Bft) 0 min 0 min 10,0 km/h (2 Bft)
01.02.2012 09:34 10,2 C -7,0 C 0,0 UV-I 0,0 C 38 % 79 % 0 % 1029,3 hPa 0,0 l/m 7,6 km/h (2 Bft) 0 min 0 min 10,8 km/h (2 Bft)
01.02.2012 09:36 10,2 C -7,0 C 0,0 UV-I 0,0 C 38 % 79 % 0 % 1029,3 hPa 0,0 l/m 7,6 km/h (2 Bft) 0 min 0 min 10,8 km/h (2 Bft)
01.02.2012 09:38 10,2 C -7,1 C 0,0 UV-I 0,0 C 38 % 79 % 0 % 1029,3 hPa 0,0 l/m 7,6 km/h (2 Bft) 0 min 0 min 8,0 km/h (2 Bft)
01.02.2012 09:40 10,2 C -7,0 C 0,0 UV-I 0,0 C 38 % 79 % 0 % 1029,3 hPa 0,0 l/m 8,0 km/h (2 Bft) 0 min 0 min 9,6 km/h (2 Bft)
01.02.2012 09:42 10,2 C -7,0 C 0,0 UV-I 0,0 C 38 % 79 % 0 % 1029,3 hPa 0,0 l/m 8,4 km/h (2 Bft) 0 min 0 min 14,1 km/h (3 Bft)
01.02.2012 09:44 10,2 C -7,0 C 0,0 UV-I 0,0 C 38 % 79 % 0 % 1029,3 hPa 0,0 l/m 8,8 km/h (2 Bft) 0 min 0 min 16,1 km/h (3 Bft)
01.02.2012 09:46 10,1 C -7,0 C 0,0 UV-I 0,0 C 38 % 78 % 0 % 1029,3 hPa 0,0 l/m 8,8 km/h (2 Bft) 0 min 0 min 16,1 km/h (3 Bft)
01.02.2012 09:48 10,2 C -6,9 C 0,0 UV-I 0,2 C 37 % 78 % 6 % 1029,3 hPa 0,0 l/m 8,8 km/h (2 Bft) 0 min 0 min 13,7 km/h (3 Bft)
01.02.2012 09:50 10,1 C -6,8 C 0,0 UV-I 0,4 C 37 % 78 % 11 % 1029,3 hPa 0,0 l/m 8,8 km/h (2 Bft) 0 min 0 min 8,4 km/h (2 Bft)
01.02.2012 09:52 10,2 C -6,9 C 0,0 UV-I 1,1 C 37 % 78 % 31 % 1029,3 hPa 0,0 l/m 8,0 km/h (2 Bft) 0 min 0 min 8,0 km/h (2 Bft)
01.02.2012 09:54 10,2 C -6,9 C 0,0 UV-I 2,1 C 37 % 78 % 60 % 1029,3 hPa 0,0 l/m 6,8 km/h (2 Bft) 2 min 0 min 4,4 km/h (1 Bft)
01.02.2012 09:56 10,2 C -6,8 C 0,0 UV-I 3,0 C 37 % 78 % 86 % 1029,3 hPa 0,0 l/m 5,6 km/h (1 Bft) 2 min 0 min 4,4 km/h (1 Bft)
01.02.2012 09:58 10,2 C -6,8 C 0,0 UV-I 3,2 C 37 % 78 % 91 % 1029,3 hPa 0,0 l/m 6,0 km/h (2 Bft) 2 min 0 min 14,1 km/h (3 Bft)
01.02.2012 10:00 10,2 C -6,7 C 0,0 UV-I 3,0 C 37 % 77 % 86 % 1029,3 hPa 0,0 l/m 6,4 km/h (2 Bft) 2 min 0 min 16,1 km/h (3 Bft)
01.02.2012 10:02 10,2 C -6,7 C 0,0 UV-I 2,8 C 37 % 77 % 80 % 1029,3 hPa 0,0 l/m 7,2 km/h (2 Bft) 2 min 0 min 16,1 km/h (3 Bft)
01.02.2012 10:04 10,2 C -6,7 C 0,0 UV-I 2,8 C 37 % 77 % 80 % 1029,3 hPa 0,0 l/m 8,0 km/h (2 Bft) 2 min 0 min 10,0 km/h (2 Bft)
01.02.2012 10:06 10,2 C -6,6 C 0,0 UV-I 2,9 C 37 % 77 % 83 % 1029,3 hPa 0,0 l/m 8,0 km/h (2 Bft) 2 min 0 min 10,0 km/h (2 Bft)
01.02.2012 10:08 10,2 C -6,6 C 0,0 UV-I 3,3 C 37 % 77 % 94 % 1029,3 hPa 0,0 l/m 8,0 km/h (2 Bft) 2 min 0 min 8,8 km/h (2 Bft)
01.02.2012 10:10 10,2 C -6,5 C 0,0 UV-I 3,6 C 37 % 77 % 100 % 1029,3 hPa 0,0 l/m 7,2 km/h (2 Bft) 2 min 0 min 7,2 km/h (2 Bft)
01.02.2012 10:12 10,2 C -6,4 C 0,0 UV-I 4,1 C 37 % 76 % 100 % 1029,3 hPa 0,0 l/m 6,4 km/h (2 Bft) 2 min 0 min 11,2 km/h (2 Bft)
01.02.2012 10:14 10,2 C -6,4 C 0,0 UV-I 4,0 C 37 % 76 % 100 % 1029,3 hPa 0,0 l/m 6,8 km/h (2 Bft) 2 min 0 min 11,2 km/h (2 Bft)
01.02.2012 10:16 10,2 C -6,4 C 0,0 UV-I 4,1 C 37 % 76 % 100 % 1029,3 hPa 0,0 l/m 6,8 km/h (2 Bft) 2 min 0 min 8,8 km/h (2 Bft)
01.02.2012 10:18 10,2 C -6,4 C 0,0 UV-I 4,1 C 37 % 76 % 100 % 1029,3 hPa 0,0 l/m 7,2 km/h (2 Bft) 2 min 0 min 15,3 km/h (3 Bft)
01.02.2012 10:20 10,2 C -6,3 C 0,0 UV-I 3,7 C 37 % 75 % 100 % 1029,3 hPa 0,0 l/m 8,0 km/h (2 Bft) 2 min 0 min 15,3 km/h (3 Bft)
01.02.2012 10:22 10,1 C -6,3 C 0,0 UV-I 3,6 C 37 % 74 % 100 % 1029,3 hPa 0,0 l/m 8,8 km/h (2 Bft) 2 min 0 min 13,3 km/h (3 Bft)
01.02.2012 10:24 10,1 C -6,3 C 0,0 UV-I 3,4 C 37 % 74 % 97 % 1029,3 hPa 0,0 l/m 9,2 km/h (2 Bft) 2 min 0 min 13,3 km/h (3 Bft)
01.02.2012 10:26 10,2 C -6,2 C 0,0 UV-I 3,0 C 37 % 73 % 86 % 1029,3 hPa 0,0 l/m 10,0 km/h (2 Bft) 2 min 0 min 17,3 km/h (3 Bft)
01.02.2012 10:28 10,1 C -6,2 C 0,0 UV-I 2,8 C 37 % 73 % 80 % 1029,3 hPa 0,0 l/m 10,8 km/h (2 Bft) 2 min 0 min 17,3 km/h (3 Bft)
01.02.2012 10:30 10,3 C -6,2 C 0,0 UV-I 3,1 C 37 % 73 % 89 % 1029,3 hPa 0,0 l/m 10,0 km/h (2 Bft) 2 min 0 min 12,4 km/h (3 Bft)
01.02.2012 10:32 10,3 C -6,0 C 0,0 UV-I 3,1 C 37 % 73 % 89 % 1029,3 hPa 0,0 l/m 9,6 km/h (2 Bft) 2 min 0 min 10,4 km/h (2 Bft)
01.02.2012 10:34 10,3 C -6,1 C 0,0 UV-I 3,4 C 37 % 73 % 97 % 1029,3 hPa 0,0 l/m 9,2 km/h (2 Bft) 2 min 0 min 17,7 km/h (3 Bft)
01.02.2012 10:36 10,3 C -6,0 C 0,0 UV-I 3,7 C 37 % 73 % 100 % 1029,3 hPa 0,0 l/m 8,4 km/h (2 Bft) 2 min 0 min 17,7 km/h (3 Bft)
01.02.2012 10:38 10,3 C -5,8 C 0,0 UV-I 3,5 C 37 % 72 % 100 % 1029,3 hPa 0,0 l/m 8,8 km/h (2 Bft) 2 min 0 min 11,6 km/h (2 Bft)
01.02.2012 10:40 10,3 C -5,8 C 0,0 UV-I 3,5 C 37 % 72 % 100 % 1029,3 hPa 0,0 l/m 8,8 km/h (2 Bft) 2 min 0 min 11,6 km/h (2 Bft)
01.02.2012 10:42 10,3 C -5,9 C 0,0 UV-I 3,2 C 37 % 71 % 91 % 1029,3 hPa 0,0 l/m 10,4 km/h (2 Bft) 2 min 0 min 22,1 km/h (4 Bft)
01.02.2012 10:44 10,3 C -5,9 C 0,0 UV-I 3,2 C 37 % 71 % 91 % 1029,3 hPa 0,0 l/m 10,8 km/h (2 Bft) 2 min 0 min 22,1 km/h (4 Bft)
01.02.2012 10:46 10,3 C -5,8 C 0,0 UV-I 3,1 C 37 % 71 % 89 % 1029,3 hPa 0,0 l/m 10,8 km/h (2 Bft) 2 min 0 min 13,7 km/h (3 Bft)
01.02.2012 10:48 10,2 C -5,7 C 0,0 UV-I 3,3 C 37 % 71 % 94 % 1029,3 hPa 0,0 l/m 10,4 km/h (2 Bft) 2 min 0 min 13,7 km/h (3 Bft)
01.02.2012 10:50 10,4 C -5,6 C 0,0 UV-I 3,2 C 37 % 70 % 91 % 1029,3 hPa 0,0 l/m 10,8 km/h (2 Bft) 2 min 0 min 13,7 km/h (3 Bft)
01.02.2012 10:52 10,2 C -5,6 C 0,0 UV-I 3,1 C 37 % 70 % 89 % 1029,3 hPa 0,0 l/m 11,2 km/h (2 Bft) 2 min 0 min 26,1 km/h (4 Bft)
01.02.2012 10:54 10,4 C -5,4 C 0,1 UV-I 2,9 C 37 % 69 % 83 % 1029,3 hPa 0,0 l/m 11,2 km/h (2 Bft) 2 min 0 min 26,1 km/h (4 Bft)
01.02.2012 10:56 10,4 C -5,4 C 0,1 UV-I 2,8 C 37 % 69 % 80 % 1029,3 hPa 0,0 l/m 11,6 km/h (2 Bft) 2 min 0 min 24,1 km/h (4 Bft)
01.02.2012 10:58 10,4 C -5,4 C 0,1 UV-I 2,9 C 37 % 69 % 83 % 1029,3 hPa 0,0 l/m 11,2 km/h (2 Bft) 2 min 0 min 24,1 km/h (4 Bft)
01.02.2012 11:00 10,4 C -5,4 C 0,1 UV-I 3,3 C 37 % 69 % 94 % 1029,3 hPa 0,0 l/m 10,4 km/h (2 Bft) 2 min 0 min 11,6 km/h (2 Bft)
01.02.2012 11:02 10,4 C -5,2 C 0,1 UV-I 3,6 C 37 % 69 % 100 % 1029,3 hPa 0,0 l/m 10,0 km/h (2 Bft) 2 min 0 min 11,2 km/h (2 Bft)
01.02.2012 11:04 10,4 C -5,2 C 0,2 UV-I 4,1 C 37 % 69 % 100 % 1029,4 hPa 0,0 l/m 8,8 km/h (2 Bft) 2 min 0 min 9,2 km/h (2 Bft)
01.02.2012 11:06 10,4 C -5,3 C 0,2 UV-I 4,4 C 37 % 69 % 100 % 1029,4 hPa 0,0 l/m 8,4 km/h (2 Bft) 2 min 0 min 9,2 km/h (2 Bft)
01.02.2012 11:08 10,4 C -5,3 C 0,2 UV-I 4,2 C 37 % 68 % 100 % 1029,4 hPa 0,0 l/m 8,8 km/h (2 Bft) 2 min 0 min 19,3 km/h (3 Bft)
01.02.2012 11:10 10,4 C -5,2 C 0,2 UV-I 4,3 C 37 % 68 % 100 % 1029,4 hPa 0,0 l/m 8,8 km/h (2 Bft) 2 min 0 min 19,3 km/h (3 Bft)
01.02.2012 11:12 10,4 C -5,2 C 0,2 UV-I 4,4 C 37 % 68 % 100 % 1029,4 hPa 0,0 l/m 8,8 km/h (2 Bft) 2 min 0 min 7,2 km/h (2 Bft)
01.02.2012 11:14 10,4 C -5,0 C 0,1 UV-I 4,4 C 37 % 68 % 100 % 1029,4 hPa 0,0 l/m 8,4 km/h (2 Bft) 2 min 0 min 6,4 km/h (2 Bft)
01.02.2012 11:16 10,4 C -5,0 C 0,1 UV-I 4,4 C 37 % 68 % 100 % 1029,4 hPa 0,0 l/m 8,8 km/h (2 Bft) 2 min 0 min 16,9 km/h (3 Bft)
01.02.2012 11:18 10,3 C -5,0 C 0,1 UV-I 4,7 C 37 % 68 % 100 % 1029,4 hPa 0,0 l/m 8,4 km/h (2 Bft) 2 min 0 min 16,9 km/h (3 Bft)
01.02.2012 11:20 10,3 C -5,0 C 0,1 UV-I 5,1 C 37 % 67 % 100 % 1029,4 hPa 0,0 l/m 7,6 km/h (2 Bft) 2 min 0 min 11,6 km/h (2 Bft)
01.02.2012 11:22 10,3 C -4,9 C 0,1 UV-I 5,0 C 37 % 67 % 100 % 1029,4 hPa 0,0 l/m 8,0 km/h (2 Bft) 2 min 0 min 11,6 km/h (2 Bft)
01.02.2012 11:24 10,3 C -4,9 C 0,1 UV-I 5,2 C 37 % 67 % 100 % 1029,4 hPa 0,0 l/m 8,0 km/h (2 Bft) 2 min 0 min 10,8 km/h (2 Bft)
01.02.2012 11:26 10,3 C -4,6 C 0,1 UV-I 5,0 C 37 % 67 % 100 % 1029,4 hPa 0,0 l/m 8,0 km/h (2 Bft) 2 min 0 min 7,6 km/h (2 Bft)
01.02.2012 11:28 10,3 C -4,6 C 0,1 UV-I 5,2 C 37 % 66 % 100 % 1029,4 hPa 0,0 l/m 7,2 km/h (2 Bft) 2 min 0 min 6,4 km/h (2 Bft)
01.02.2012 11:30 10,3 C -4,6 C 0,1 UV-I 5,3 C 37 % 66 % 100 % 1029,4 hPa 0,0 l/m 7,6 km/h (2 Bft) 2 min 0 min 20,1 km/h (4 Bft)
01.02.2012 11:32 10,3 C -4,6 C 0,1 UV-I 5,2 C 37 % 65 % 100 % 1029,4 hPa 0,0 l/m 8,4 km/h (2 Bft) 2 min 0 min 20,1 km/h (4 Bft)
01.02.2012 11:34 10,3 C -4,5 C 0,2 UV-I 4,9 C 37 % 64 % 100 % 1029,4 hPa 0,0 l/m 8,8 km/h (2 Bft) 2 min 0 min 12,8 km/h (3 Bft)
01.02.2012 11:36 10,3 C -4,4 C 0,2 UV-I 5,0 C 37 % 64 % 100 % 1029,4 hPa 0,0 l/m 8,4 km/h (2 Bft) 2 min 0 min 12,8 km/h (3 Bft)
01.02.2012 11:38 10,5 C -4,2 C 0,2 UV-I 4,9 C 37 % 64 % 100 % 1029,4 hPa 0,0 l/m 8,4 km/h (2 Bft) 2 min 0 min 10,0 km/h (2 Bft)
01.02.2012 11:40 10,3 C -4,2 C 0,2 UV-I 5,3 C 37 % 64 % 100 % 1029,4 hPa 0,0 l/m 8,0 km/h (2 Bft) 2 min 0 min 10,0 km/h (2 Bft)
01.02.2012 11:42 10,5 C -4,2 C 0,2 UV-I 5,1 C 37 % 62 % 100 % 1029,4 hPa 0,0 l/m 8,8 km/h (2 Bft) 2 min 0 min 10,8 km/h (2 Bft)
01.02.2012 11:44 10,5 C -4,2 C 0,2 UV-I 5,0 C 37 % 62 % 100 % 1029,4 hPa 0,0 l/m 8,4 km/h (2 Bft) 2 min 0 min 10,8 km/h (2 Bft)
01.02.2012 11:46 10,3 C -4,2 C 0,2 UV-I 4,9 C 37 % 62 % 100 % 1029,4 hPa 0,0 l/m 9,2 km/h (2 Bft) 2 min 0 min 10,0 km/h (2 Bft)
01.02.2012 11:48 10,5 C -4,1 C 0,2 UV-I 4,3 C 37 % 62 % 100 % 1029,4 hPa 0,0 l/m 10,4 km/h (2 Bft) 2 min 0 min 18,5 km/h (3 Bft)
01.02.2012 11:50 10,5 C -4,0 C 0,2 UV-I 4,1 C 37 % 61 % 100 % 1029,4 hPa 0,0 l/m 10,8 km/h (2 Bft) 2 min 0 min 18,5 km/h (3 Bft)
01.02.2012 11:52 10,5 C -4,1 C 0,2 UV-I 4,3 C 37 % 62 % 100 % 1029,4 hPa 0,0 l/m 10,4 km/h (2 Bft) 2 min 0 min 12,8 km/h (3 Bft)
01.02.2012 11:54 10,4 C -4,0 C 0,3 UV-I 4,1 C 37 % 61 % 100 % 1029,4 hPa 0,0 l/m 10,8 km/h (2 Bft) 2 min 0 min 12,8 km/h (3 Bft)
01.02.2012 11:56 10,4 C -3,8 C 0,3 UV-I 4,0 C 37 % 61 % 100 % 1029,4 hPa 0,0 l/m 10,4 km/h (2 Bft) 2 min 0 min 11,2 km/h (2 Bft)
01.02.2012 11:58 10,4 C -3,8 C 0,2 UV-I 4,0 C 37 % 61 % 100 % 1029,4 hPa 0,0 l/m 10,8 km/h (2 Bft) 2 min 0 min 19,7 km/h (3 Bft)
01.02.2012 12:00 10,4 C -3,9 C 0,2 UV-I 4,1 C 37 % 60 % 100 % 1029,4 hPa 0,0 l/m 10,8 km/h (2 Bft) 2 min 0 min 19,7 km/h (3 Bft)
01.02.2012 12:02 10,6 C -3,8 C 0,2 UV-I 3,6 C 37 % 60 % 100 % 1029,4 hPa 0,0 l/m 11,6 km/h (2 Bft) 2 min 0 min 11,2 km/h (2 Bft)
01.02.2012 12:04 10,6 C -3,8 C 0,2 UV-I 3,8 C 37 % 60 % 100 % 1029,4 hPa 0,0 l/m 11,2 km/h (2 Bft) 2 min 0 min 12,8 km/h (3 Bft)
01.02.2012 12:06 10,6 C -3,8 C 0,2 UV-I 3,7 C 37 % 60 % 100 % 1029,4 hPa 0,0 l/m 11,6 km/h (2 Bft) 2 min 0 min 12,8 km/h (3 Bft)
01.02.2012 12:08 10,6 C -3,8 C 0,3 UV-I 3,6 C 37 % 60 % 100 % 1029,4 hPa 0,0 l/m 12,4 km/h (3 Bft) 2 min 0 min 14,9 km/h (3 Bft)
01.02.2012 12:10 10,6 C -3,8 C 0,3 UV-I 3,9 C 37 % 60 % 100 % 1029,4 hPa 0,0 l/m 11,2 km/h (2 Bft) 2 min 0 min 14,9 km/h (3 Bft)
01.02.2012 12:12 10,6 C -3,7 C 0,3 UV-I 3,9 C 37 % 60 % 100 % 1029,4 hPa 0,0 l/m 10,4 km/h (2 Bft) 2 min 0 min 12,4 km/h (3 Bft)
01.02.2012 12:14 10,6 C -3,7 C 0,4 UV-I 3,7 C 37 % 59 % 100 % 1029,4 hPa 0,0 l/m 11,6 km/h (2 Bft) 2 min 0 min 20,9 km/h (4 Bft)
01.02.2012 12:16 10,6 C -3,6 C 0,4 UV-I 3,7 C 37 % 59 % 100 % 1029,4 hPa 0,0 l/m 11,2 km/h (2 Bft) 2 min 0 min 20,9 km/h (4 Bft)
01.02.2012 12:18 10,6 C -3,6 C 0,3 UV-I 3,7 C 37 % 59 % 100 % 1029,4 hPa 0,0 l/m 11,2 km/h (2 Bft) 2 min 0 min 14,1 km/h (3 Bft)
01.02.2012 12:20 10,6 C -3,6 C 0,3 UV-I 3,7 C 37 % 59 % 100 % 1029,4 hPa 0,0 l/m 11,6 km/h (2 Bft) 2 min 0 min 14,1 km/h (3 Bft)
01.02.2012 12:22 10,6 C -3,4 C 0,3 UV-I 3,7 C 37 % 59 % 100 % 1029,4 hPa 0,0 l/m 11,6 km/h (2 Bft) 2 min 0 min 13,7 km/h (3 Bft)
01.02.2012 12:24 10,6 C -3,4 C 0,3 UV-I 4,1 C 37 % 59 % 100 % 1029,5 hPa 0,0 l/m 10,8 km/h (2 Bft) 2 min 0 min 11,6 km/h (2 Bft)
01.02.2012 12:26 10,7 C -3,4 C 0,3 UV-I 4,5 C 37 % 59 % 100 % 1029,5 hPa 0,0 l/m 9,6 km/h (2 Bft) 2 min 0 min 10,8 km/h (2 Bft)
01.02.2012 12:28 10,7 C -3,2 C 0,3 UV-I 4,3 C 37 % 58 % 100 % 1029,5 hPa 0,0 l/m 10,0 km/h (2 Bft) 2 min 0 min 18,9 km/h (3 Bft)
01.02.2012 12:30 10,7 C -3,4 C 0,3 UV-I 4,5 C 37 % 58 % 100 % 1029,5 hPa 0,0 l/m 10,0 km/h (2 Bft) 2 min 0 min 18,9 km/h (3 Bft)
01.02.2012 12:32 10,7 C -3,3 C 0,3 UV-I 4,1 C 37 % 58 % 100 % 1029,5 hPa 0,0 l/m 10,8 km/h (2 Bft) 2 min 0 min 19,3 km/h (3 Bft)
01.02.2012 12:34 10,7 C -3,3 C 0,3 UV-I 3,8 C 37 % 57 % 100 % 1029,5 hPa 0,0 l/m 12,0 km/h (2 Bft) 2 min 0 min 20,9 km/h (4 Bft)
01.02.2012 12:36 10,7 C -3,3 C 0,3 UV-I 3,5 C 37 % 57 % 100 % 1029,5 hPa 0,0 l/m 12,8 km/h (3 Bft) 2 min 0 min 20,9 km/h (4 Bft)
01.02.2012 12:38 10,7 C -3,3 C 0,3 UV-I 3,2 C 37 % 56 % 91 % 1029,5 hPa 0,0 l/m 14,1 km/h (3 Bft) 2 min 0 min 22,1 km/h (4 Bft)
01.02.2012 12:40 10,7 C -3,2 C 0,3 UV-I 3,0 C 37 % 56 % 86 % 1029,5 hPa 0,0 l/m 14,1 km/h (3 Bft) 2 min 0 min 22,1 km/h (4 Bft)
01.02.2012 12:42 10,7 C -3,2 C 0,3 UV-I 3,1 C 37 % 56 % 89 % 1029,5 hPa 0,0 l/m 14,1 km/h (3 Bft) 2 min 0 min 19,3 km/h (3 Bft)
01.02.2012 12:44 10,7 C -3,2 C 0,3 UV-I 3,4 C 37 % 56 % 97 % 1029,5 hPa 0,0 l/m 13,3 km/h (3 Bft) 2 min 0 min 19,3 km/h (3 Bft)
01.02.2012 12:46 10,6 C -3,0 C 0,4 UV-I 3,2 C 37 % 55 % 91 % 1029,5 hPa 0,0 l/m 13,3 km/h (3 Bft) 2 min 0 min 12,8 km/h (3 Bft)
01.02.2012 12:48 10,8 C -3,0 C 0,4 UV-I 3,3 C 37 % 55 % 94 % 1029,5 hPa 0,0 l/m 12,8 km/h (3 Bft) 2 min 0 min 15,3 km/h (3 Bft)
01.02.2012 12:50 10,8 C -3,0 C 0,4 UV-I 3,5 C 37 % 54 % 100 % 1029,5 hPa 0,0 l/m 12,8 km/h (3 Bft) 2 min 0 min 19,3 km/h (3 Bft)
01.02.2012 12:52 10,8 C -2,8 C 0,4 UV-I 3,2 C 37 % 54 % 91 % 1029,5 hPa 0,0 l/m 13,3 km/h (3 Bft) 2 min 0 min 19,3 km/h (3 Bft)
01.02.2012 12:54 10,8 C -2,9 C 0,4 UV-I 3,1 C 37 % 54 % 89 % 1029,5 hPa 0,0 l/m 13,7 km/h (3 Bft) 2 min 0 min 22,5 km/h (4 Bft)
01.02.2012 12:56 10,8 C -2,8 C 0,4 UV-I 3,2 C 36 % 54 % 91 % 1029,5 hPa 0,0 l/m 13,3 km/h (3 Bft) 2 min 0 min 22,5 km/h (4 Bft)
01.02.2012 12:58 10,8 C -2,8 C 0,5 UV-I 3,2 C 36 % 54 % 91 % 1029,5 hPa 0,0 l/m 13,7 km/h (3 Bft) 2 min 0 min 31,7 km/h (5 Bft)
01.02.2012 13:00 10,8 C -2,6 C 0,5 UV-I 3,3 C 36 % 53 % 94 % 1029,5 hPa 0,0 l/m 12,8 km/h (3 Bft) 2 min 0 min 31,7 km/h (5 Bft)
01.02.2012 13:02 10,8 C -2,6 C 0,5 UV-I 3,4 C 36 % 53 % 97 % 1029,5 hPa 0,0 l/m 12,4 km/h (3 Bft) 2 min 0 min 17,3 km/h (3 Bft)
01.02.2012 13:04 10,8 C -2,6 C 0,5 UV-I 3,7 C 36 % 53 % 100 % 1028,9 hPa 0,0 l/m 11,6 km/h (2 Bft) 2 min 0 min 11,6 km/h (2 Bft)
01.02.2012 13:06 10,8 C -2,6 C 0,5 UV-I 3,9 C 36 % 53 % 100 % 1028,9 hPa 0,0 l/m 11,2 km/h (2 Bft) 2 min 0 min 11,6 km/h (2 Bft)
01.02.2012 13:08 10,8 C -2,5 C 0,4 UV-I 4,0 C 36 % 53 % 100 % 1028,9 hPa 0,0 l/m 11,6 km/h (2 Bft) 2 min 0 min 21,7 km/h (4 Bft)
01.02.2012 13:10 10,9 C -2,4 C 0,4 UV-I 4,1 C 36 % 53 % 100 % 1028,9 hPa 0,0 l/m 10,8 km/h (2 Bft) 2 min 0 min 21,7 km/h (4 Bft)
01.02.2012 13:12 10,8 C -2,2 C 0,4 UV-I 3,9 C 36 % 53 % 100 % 1028,9 hPa 0,0 l/m 10,8 km/h (2 Bft) 2 min 0 min 15,7 km/h (3 Bft)
01.02.2012 13:14 10,8 C -2,4 C 0,4 UV-I 4,2 C 36 % 52 % 100 % 1028,9 hPa 0,0 l/m 10,8 km/h (2 Bft) 2 min 0 min 15,7 km/h (3 Bft)
01.02.2012 13:16 11,0 C -2,2 C 0,4 UV-I 4,0 C 36 % 52 % 100 % 1028,9 hPa 0,0 l/m 10,8 km/h (2 Bft) 2 min 0 min 16,1 km/h (3 Bft)
01.02.2012 13:18 11,0 C -2,3 C 0,4 UV-I 4,1 C 36 % 52 % 100 % 1028,9 hPa 0,0 l/m 11,2 km/h (2 Bft) 2 min 0 min 16,9 km/h (3 Bft)
01.02.2012 13:20 11,0 C -2,2 C 0,4 UV-I 4,0 C 36 % 51 % 100 % 1028,9 hPa 0,0 l/m 11,2 km/h (2 Bft) 2 min 0 min 16,9 km/h (3 Bft)
01.02.2012 13:22 10,9 C -2,2 C 0,4 UV-I 3,9 C 36 % 51 % 100 % 1028,9 hPa 0,0 l/m 11,6 km/h (2 Bft) 2 min 0 min 13,3 km/h (3 Bft)
01.02.2012 13:24 10,9 C -2,2 C 0,4 UV-I 4,1 C 36 % 51 % 100 % 1028,9 hPa 0,0 l/m 11,2 km/h (2 Bft) 2 min 0 min 10,4 km/h (2 Bft)
01.02.2012 13:26 11,1 C -2,1 C 0,4 UV-I 4,2 C 36 % 52 % 100 % 1028,9 hPa 0,0 l/m 10,8 km/h (2 Bft) 2 min 0 min 10,4 km/h (2 Bft)
01.02.2012 13:28 11,2 C -2,0 C 0,4 UV-I 4,6 C 37 % 52 % 100 % 1028,9 hPa 0,0 l/m 10,0 km/h (2 Bft) 2 min 0 min 9,2 km/h (2 Bft)
01.02.2012 13:30 11,2 C -1,8 C 0,4 UV-I 4,6 C 37 % 52 % 100 % 1028,9 hPa 0,0 l/m 9,6 km/h (2 Bft) 2 min 0 min 16,5 km/h (3 Bft)
01.02.2012 13:32 11,1 C -1,8 C 0,4 UV-I 4,7 C 36 % 51 % 100 % 1028,9 hPa 0,0 l/m 9,6 km/h (2 Bft) 2 min 0 min 16,5 km/h (3 Bft)
01.02.2012 13:34 11,1 C -1,9 C 0,4 UV-I 4,9 C 37 % 52 % 100 % 1028,9 hPa 0,0 l/m 9,2 km/h (2 Bft) 2 min 0 min 10,4 km/h (2 Bft)
01.02.2012 13:36 11,2 C -1,8 C 0,4 UV-I 5,0 C 37 % 52 % 100 % 1028,9 hPa 0,0 l/m 9,2 km/h (2 Bft) 2 min 0 min 18,9 km/h (3 Bft)
01.02.2012 13:38 11,2 C -1,8 C 0,3 UV-I 4,9 C 37 % 51 % 100 % 1028,9 hPa 0,0 l/m 10,0 km/h (2 Bft) 2 min 0 min 18,9 km/h (3 Bft)
01.02.2012 13:40 11,4 C -1,8 C 0,3 UV-I 4,4 C 37 % 49 % 100 % 1028,9 hPa 0,0 l/m 11,2 km/h (2 Bft) 2 min 0 min 19,3 km/h (3 Bft)
01.02.2012 13:42 11,5 C -1,8 C 0,3 UV-I 4,4 C 37 % 49 % 100 % 1028,9 hPa 0,0 l/m 10,8 km/h (2 Bft) 2 min 0 min 22,1 km/h (4 Bft)
01.02.2012 13:44 11,5 C -1,8 C 0,3 UV-I 4,2 C 37 % 49 % 100 % 1028,9 hPa 0,0 l/m 11,6 km/h (2 Bft) 2 min 0 min 22,1 km/h (4 Bft)
01.02.2012 13:46 11,6 C -1,8 C 0,3 UV-I 3,9 C 37 % 48 % 100 % 1028,9 hPa 0,0 l/m 12,4 km/h (3 Bft) 2 min 0 min 18,9 km/h (3 Bft)
01.02.2012 13:48 11,6 C -1,8 C 0,3 UV-I 3,9 C 37 % 49 % 100 % 1028,9 hPa 0,0 l/m 12,4 km/h (3 Bft) 2 min 0 min 18,9 km/h (3 Bft)
01.02.2012 13:50 11,6 C -1,8 C 0,3 UV-I 3,9 C 37 % 48 % 100 % 1028,9 hPa 0,0 l/m 12,4 km/h (3 Bft) 2 min 0 min 20,5 km/h (4 Bft)
01.02.2012 13:52 11,6 C -1,6 C 0,3 UV-I 3,7 C 37 % 48 % 100 % 1028,9 hPa 0,0 l/m 12,4 km/h (3 Bft) 2 min 0 min 20,5 km/h (4 Bft)
01.02.2012 13:54 11,8 C -1,7 C 0,3 UV-I 3,9 C 36 % 48 % 100 % 1028,9 hPa 0,0 l/m 12,0 km/h (2 Bft) 2 min 0 min 10,8 km/h (2 Bft)
01.02.2012 13:56 11,8 C -1,7 C 0,3 UV-I 3,9 C 37 % 47 % 100 % 1028,9 hPa 0,0 l/m 11,6 km/h (2 Bft) 2 min 0 min 14,5 km/h (3 Bft)
01.02.2012 13:58 11,9 C -1,6 C 0,3 UV-I 3,9 C 36 % 48 % 100 % 1028,9 hPa 0,0 l/m 11,6 km/h (2 Bft) 2 min 0 min 14,5 km/h (3 Bft)
01.02.2012 14:00 11,8 C -1,7 C 0,3 UV-I 3,8 C 36 % 47 % 100 % 1028,9 hPa 0,0 l/m 12,0 km/h (2 Bft) 2 min 0 min 13,3 km/h (3 Bft)
01.02.2012 14:02 12,0 C -1,7 C 0,3 UV-I 3,8 C 36 % 47 % 100 % 1028,9 hPa 0,0 l/m 12,0 km/h (2 Bft) 2 min 0 min 20,1 km/h (4 Bft)
01.02.2012 14:04 12,0 C -1,7 C 0,3 UV-I 3,6 C 36 % 47 % 100 % 1029,9 hPa 0,0 l/m 12,4 km/h (3 Bft) 2 min 0 min 14,1 km/h (3 Bft)
01.02.2012 14:06 12,1 C -1,6 C 0,4 UV-I 3,3 C 36 % 46 % 94 % 1029,9 hPa 0,0 l/m 12,8 km/h (3 Bft) 2 min 0 min 15,3 km/h (3 Bft)
01.02.2012 14:08 12,2 C -1,7 C 0,3 UV-I 3,6 C 36 % 47 % 100 % 1029,9 hPa 0,0 l/m 12,0 km/h (2 Bft) 2 min 0 min 15,3 km/h (3 Bft)
01.02.2012 14:10 12,2 C -1,6 C 0,3 UV-I 3,9 C 36 % 47 % 100 % 1029,9 hPa 0,0 l/m 10,8 km/h (2 Bft) 2 min 0 min 18,5 km/h (3 Bft)
01.02.2012 14:12 12,1 C -1,4 C 0,3 UV-I 3,7 C 36 % 47 % 100 % 1029,9 hPa 0,0 l/m 11,2 km/h (2 Bft) 2 min 0 min 18,5 km/h (3 Bft)
01.02.2012 14:14 12,3 C -1,4 C 0,3 UV-I 4,0 C 35 % 47 % 100 % 1029,9 hPa 0,0 l/m 10,4 km/h (2 Bft) 2 min 0 min 19,7 km/h (3 Bft)
01.02.2012 14:16 12,4 C -1,4 C 0,3 UV-I 4,0 C 35 % 47 % 100 % 1029,9 hPa 0,0 l/m 10,4 km/h (2 Bft) 2 min 0 min 19,7 km/h (3 Bft)
01.02.2012 14:18 12,3 C -1,4 C 0,2 UV-I 4,0 C 35 % 46 % 100 % 1029,9 hPa 0,0 l/m 10,8 km/h (2 Bft) 2 min 0 min 18,5 km/h (3 Bft)
01.02.2012 14:20 12,5 C -1,4 C 0,2 UV-I 3,5 C 35 % 45 % 100 % 1029,9 hPa 0,0 l/m 12,4 km/h (3 Bft) 2 min 0 min 17,7 km/h (3 Bft)
01.02.2012 14:22 12,4 C -1,4 C 0,2 UV-I 3,3 C 35 % 45 % 94 % 1029,9 hPa 0,0 l/m 12,8 km/h (3 Bft) 2 min 0 min 17,7 km/h (3 Bft)
01.02.2012 14:24 12,4 C -1,4 C 0,2 UV-I 3,3 C 35 % 45 % 94 % 1030,1 hPa 0,0 l/m 12,4 km/h (3 Bft) 2 min 0 min 13,7 km/h (3 Bft)
01.02.2012 14:26 12,7 C -1,5 C 0,3 UV-I 3,4 C 34 % 46 % 97 % 1030,1 hPa 0,0 l/m 12,4 km/h (3 Bft) 2 min 0 min 13,3 km/h (3 Bft)
01.02.2012 14:28 12,6 C -1,5 C 0,2 UV-I 3,5 C 34 % 45 % 100 % 1030,1 hPa 0,0 l/m 12,0 km/h (2 Bft) 2 min 0 min 18,9 km/h (3 Bft)
01.02.2012 14:30 12,8 C -1,4 C 0,2 UV-I 3,5 C 34 % 45 % 100 % 1030,1 hPa 0,0 l/m 11,6 km/h (2 Bft) 2 min 0 min 18,9 km/h (3 Bft)
01.02.2012 14:32 12,8 C -1,5 C 0,2 UV-I 3,9 C 34 % 46 % 100 % 1030,1 hPa 0,0 l/m 10,0 km/h (2 Bft) 2 min 0 min 9,6 km/h (2 Bft)
01.02.2012 14:34 12,9 C -1,4 C 0,2 UV-I 4,0 C 34 % 46 % 100 % 1030,1 hPa 0,0 l/m 10,0 km/h (2 Bft) 2 min 0 min 22,5 km/h (4 Bft)
01.02.2012 14:36 12,8 C -1,2 C 0,2 UV-I 4,0 C 34 % 45 % 100 % 1030,1 hPa 0,0 l/m 9,6 km/h (2 Bft) 2 min 0 min 22,5 km/h (4 Bft)
01.02.2012 14:38 13,0 C -1,3 C 0,2 UV-I 4,2 C 33 % 46 % 100 % 1030,1 hPa 0,0 l/m 9,6 km/h (2 Bft) 2 min 0 min 10,8 km/h (2 Bft)
01.02.2012 14:40 13,0 C -1,2 C 0,2 UV-I 4,0 C 33 % 45 % 100 % 1030,1 hPa 0,0 l/m 10,0 km/h (2 Bft) 2 min 0 min 22,1 km/h (4 Bft)
01.02.2012 14:42 13,1 C -1,2 C 0,2 UV-I 3,8 C 33 % 45 % 100 % 1030,1 hPa 0,0 l/m 10,4 km/h (2 Bft) 2 min 0 min 22,1 km/h (4 Bft)
01.02.2012 14:44 13,1 C -1,2 C 0,2 UV-I 3,8 C 33 % 45 % 100 % 1030,2 hPa 0,0 l/m 10,8 km/h (2 Bft) 2 min 0 min 18,9 km/h (3 Bft)
01.02.2012 14:46 13,2 C -1,2 C 0,1 UV-I 4,0 C 33 % 45 % 100 % 1030,2 hPa 0,0 l/m 10,8 km/h (2 Bft) 2 min 0 min 11,6 km/h (2 Bft)
01.02.2012 14:48 13,2 C -1,2 C 0,1 UV-I 4,1 C 33 % 45 % 100 % 1030,2 hPa 0,0 l/m 10,8 km/h (2 Bft) 2 min 0 min 11,6 km/h (2 Bft)
01.02.2012 14:50 13,1 C -1,2 C 0,1 UV-I 4,6 C 33 % 45 % 100 % 1030,2 hPa 0,0 l/m 10,0 km/h (2 Bft) 2 min 0 min 11,6 km/h (2 Bft)
01.02.2012 14:52 13,2 C -1,0 C 0,1 UV-I 4,9 C 33 % 45 % 100 % 1030,2 hPa 0,0 l/m 8,8 km/h (2 Bft) 2 min 0 min 10,8 km/h (2 Bft)
01.02.2012 14:54 13,2 C -1,2 C 0,1 UV-I 5,4 C 33 % 45 % 100 % 1030,2 hPa 0,0 l/m 8,4 km/h (2 Bft) 2 min 0 min 10,8 km/h (2 Bft)
01.02.2012 14:56 13,4 C -1,0 C 0,1 UV-I 5,3 C 32 % 46 % 100 % 1030,2 hPa 0,0 l/m 8,0 km/h (2 Bft) 2 min 0 min 8,0 km/h (2 Bft)
01.02.2012 14:58 13,4 C -1,0 C 0,1 UV-I 5,4 C 32 % 44 % 100 % 1030,2 hPa 0,0 l/m 8,4 km/h (2 Bft) 2 min 0 min 9,6 km/h (2 Bft)
01.02.2012 15:00 13,3 C -1,2 C 0,1 UV-I 5,5 C 32 % 44 % 100 % 1030,2 hPa 0,0 l/m 8,4 km/h (2 Bft) 2 min 0 min 13,7 km/h (3 Bft)
01.02.2012 15:02 13,5 C -1,0 C 0,1 UV-I 5,0 C 32 % 44 % 100 % 1030,2 hPa 0,0 l/m 9,2 km/h (2 Bft) 2 min 0 min 13,7 km/h (3 Bft)
01.02.2012 15:04 13,5 C -1,0 C 0,1 UV-I 4,8 C 32 % 44 % 100 % 1030,3 hPa 0,0 l/m 9,6 km/h (2 Bft) 2 min 0 min 11,2 km/h (2 Bft)
01.02.2012 15:06 13,4 C -1,2 C 0,0 UV-I 4,5 C 32 % 44 % 100 % 1030,3 hPa 0,0 l/m 11,2 km/h (2 Bft) 2 min 0 min 20,1 km/h (4 Bft)
01.02.2012 15:08 13,6 C -1,3 C 0,0 UV-I 4,4 C 32 % 44 % 100 % 1030,3 hPa 0,0 l/m 11,6 km/h (2 Bft) 2 min 0 min 20,1 km/h (4 Bft)
01.02.2012 15:10 13,6 C -1,3 C 0,0 UV-I 4,3 C 32 % 43 % 100 % 1030,3 hPa 0,0 l/m 11,2 km/h (2 Bft) 2 min 0 min 14,9 km/h (3 Bft)
01.02.2012 15:12 13,6 C -1,3 C 0,0 UV-I 4,1 C 32 % 43 % 100 % 1030,3 hPa 0,0 l/m 11,6 km/h (2 Bft) 2 min 0 min 14,9 km/h (3 Bft)
01.02.2012 15:14 13,6 C -1,3 C 0,0 UV-I 3,9 C 32 % 43 % 100 % 1030,3 hPa 0,0 l/m 11,6 km/h (2 Bft) 2 min 0 min 14,5 km/h (3 Bft)
01.02.2012 15:16 13,7 C -1,2 C 0,0 UV-I 3,8 C 32 % 43 % 100 % 1030,3 hPa 0,0 l/m 10,8 km/h (2 Bft) 2 min 0 min 14,5 km/h (3 Bft)
01.02.2012 15:18 13,6 C -1,4 C 0,0 UV-I 4,1 C 32 % 43 % 100 % 1030,3 hPa 0,0 l/m 10,0 km/h (2 Bft) 2 min 0 min 14,5 km/h (3 Bft)
01.02.2012 15:20 13,6 C -1,4 C 0,0 UV-I 4,1 C 32 % 44 % 100 % 1030,3 hPa 0,0 l/m 10,0 km/h (2 Bft) 2 min 0 min 14,5 km/h (3 Bft)
01.02.2012 15:22 13,8 C -1,4 C 0,0 UV-I 4,0 C 32 % 44 % 100 % 1030,3 hPa 0,0 l/m 10,4 km/h (2 Bft) 2 min 0 min 16,1 km/h (3 Bft)
01.02.2012 15:24 13,8 C -1,4 C 0,0 UV-I 4,0 C 32 % 44 % 100 % 1030,4 hPa 0,0 l/m 10,8 km/h (2 Bft) 2 min 0 min 16,1 km/h (3 Bft)
01.02.2012 15:26 13,8 C -1,4 C 0,0 UV-I 3,7 C 31 % 45 % 100 % 1030,4 hPa 0,0 l/m 11,2 km/h (2 Bft) 2 min 0 min 29,7 km/h (5 Bft)
01.02.2012 15:28 13,8 C -1,4 C 0,0 UV-I 3,6 C 31 % 45 % 100 % 1030,4 hPa 0,0 l/m 11,2 km/h (2 Bft) 2 min 0 min 29,7 km/h (5 Bft)
01.02.2012 15:30 13,8 C -1,4 C 0,0 UV-I 3,3 C 31 % 45 % 94 % 1030,4 hPa 0,0 l/m 11,6 km/h (2 Bft) 2 min 0 min 17,7 km/h (3 Bft)
01.02.2012 15:32 13,8 C -1,4 C 0,0 UV-I 2,9 C 31 % 45 % 83 % 1030,4 hPa 0,0 l/m 12,4 km/h (3 Bft) 2 min 0 min 17,7 km/h (3 Bft)
01.02.2012 15:34 13,9 C -1,6 C 0,0 UV-I 2,6 C 31 % 45 % 74 % 1030,4 hPa 0,0 l/m 12,4 km/h (3 Bft) 2 min 0 min 18,9 km/h (3 Bft)
01.02.2012 15:36 13,9 C -1,7 C 0,0 UV-I 2,3 C 31 % 45 % 66 % 1030,4 hPa 0,0 l/m 13,7 km/h (3 Bft) 2 min 0 min 20,1 km/h (4 Bft)
01.02.2012 15:38 13,8 C -1,8 C 0,0 UV-I 1,9 C 31 % 45 % 54 % 1030,4 hPa 0,0 l/m 14,5 km/h (3 Bft) 2 min 0 min 22,9 km/h (4 Bft)
01.02.2012 15:40 14,0 C -1,9 C 0,0 UV-I 1,7 C 31 % 46 % 49 % 1030,4 hPa 0,0 l/m 14,9 km/h (3 Bft) 0 min 0 min 22,9 km/h (4 Bft)
01.02.2012 15:42 14,0 C -2,0 C 0,0 UV-I 1,9 C 31 % 46 % 54 % 1030,4 hPa 0,0 l/m 13,7 km/h (3 Bft) 2 min 0 min 15,3 km/h (3 Bft)
01.02.2012 15:44 14,0 C -2,0 C 0,0 UV-I 2,0 C 31 % 46 % 57 % 1030,2 hPa 0,0 l/m 12,4 km/h (3 Bft) 2 min 0 min 11,2 km/h (2 Bft)
01.02.2012 15:46 14,0 C -2,1 C 0,0 UV-I 2,2 C 31 % 47 % 63 % 1030,2 hPa 0,0 l/m 12,0 km/h (2 Bft) 2 min 0 min 16,9 km/h (3 Bft)
01.02.2012 15:48 13,9 C -2,1 C 0,0 UV-I 2,3 C 31 % 47 % 66 % 1030,2 hPa 0,0 l/m 11,2 km/h (2 Bft) 2 min 0 min 16,9 km/h (3 Bft)
01.02.2012 15:50 13,9 C -2,2 C 0,0 UV-I 2,5 C 31 % 47 % 71 % 1030,2 hPa 0,0 l/m 10,0 km/h (2 Bft) 2 min 0 min 18,9 km/h (3 Bft)
01.02.2012 15:52 14,0 C -2,2 C 0,0 UV-I 2,4 C 31 % 47 % 69 % 1030,2 hPa 0,0 l/m 10,4 km/h (2 Bft) 2 min 0 min 18,5 km/h (3 Bft)
01.02.2012 15:54 14,0 C -2,2 C 0,0 UV-I 1,9 C 31 % 47 % 54 % 1030,2 hPa 0,0 l/m 11,6 km/h (2 Bft) 2 min 0 min 20,5 km/h (4 Bft)
01.02.2012 15:56 14,0 C -2,2 C 0,0 UV-I 1,6 C 31 % 47 % 46 % 1030,2 hPa 0,0 l/m 12,0 km/h (2 Bft) 2 min 0 min 20,5 km/h (4 Bft)
01.02.2012 15:58 14,0 C -2,3 C 0,0 UV-I 1,4 C 31 % 47 % 40 % 1030,2 hPa 0,0 l/m 12,4 km/h (3 Bft) 0 min 0 min 27,7 km/h (4 Bft)
01.02.2012 16:00 13,8 C -2,2 C 0,0 UV-I 0,6 C 31 % 47 % 17 % 1030,2 hPa 0,0 l/m 12,8 km/h (3 Bft) 0 min 0 min 27,7 km/h (4 Bft)
01.02.2012 16:02 13,9 C -2,2 C 0,0 UV-I 0,4 C 31 % 48 % 11 % 1030,2 hPa 0,0 l/m 12,8 km/h (3 Bft) 0 min 0 min 11,6 km/h (2 Bft)
01.02.2012 16:04 13,9 C -2,2 C 0,0 UV-I 0,2 C 31 % 48 % 6 % 1030,2 hPa 0,0 l/m 12,4 km/h (3 Bft) 0 min 0 min 8,0 km/h (2 Bft)
01.02.2012 16:06 13,8 C -2,2 C 0,0 UV-I 0,0 C 31 % 48 % 0 % 1030,2 hPa 0,0 l/m 12,4 km/h (3 Bft) 0 min 0 min 14,9 km/h (3 Bft)
01.02.2012 16:08 13,8 C -2,4 C 0,0 UV-I 0,0 C 31 % 47 % 0 % 1030,2 hPa 0,0 l/m 12,4 km/h (3 Bft) 0 min 0 min 14,9 km/h (3 Bft)
01.02.2012 16:10 13,8 C -2,4 C 0,0 UV-I 0,0 C 31 % 48 % 0 % 1030,2 hPa 0,0 l/m 11,2 km/h (2 Bft) 0 min 0 min 22,9 km/h (4 Bft)
01.02.2012 16:12 13,6 C -2,4 C 0,0 UV-I 0,0 C 31 % 47 % 0 % 1030,2 hPa 0,0 l/m 12,0 km/h (2 Bft) 0 min 0 min 22,9 km/h (4 Bft)
01.02.2012 16:14 13,6 C -2,5 C 0,0 UV-I 0,0 C 31 % 47 % 0 % 1030,2 hPa 0,0 l/m 12,0 km/h (2 Bft) 0 min 0 min 16,1 km/h (3 Bft)
01.02.2012 16:16 13,7 C -2,5 C 0,0 UV-I 0,0 C 31 % 47 % 0 % 1030,2 hPa 0,0 l/m 12,8 km/h (3 Bft) 0 min 0 min 20,5 km/h (4 Bft)
01.02.2012 16:18 13,6 C -2,4 C 0,0 UV-I 0,0 C 31 % 47 % 0 % 1030,2 hPa 0,0 l/m 13,3 km/h (3 Bft) 0 min 0 min 20,5 km/h (4 Bft)
01.02.2012 16:19 13,6 C -2,5 C 0,0 UV-I 0,0 C 31 % 47 % 0 % 1030,2 hPa 0,0 l/m 13,3 km/h (3 Bft) 0 min 0 min 16,5 km/h (3 Bft)
01.02.2012 16:20 13,6 C -2,5 C 0,0 UV-I 0,0 C 30 % 47 % 0 % 1030,2 hPa 0,0 l/m 13,3 km/h (3 Bft) 0 min 0 min 21,3 km/h (4 Bft)
01.02.2012 16:22 13,6 C -2,4 C 0,0 UV-I 0,0 C 31 % 47 % 0 % 1030,2 hPa 0,0 l/m 13,3 km/h (3 Bft) 0 min 0 min 21,3 km/h (4 Bft)
01.02.2012 16:24 13,6 C -2,4 C 0,0 UV-I 0,0 C 31 % 47 % 0 % 1029,8 hPa 0,0 l/m 13,3 km/h (3 Bft) 0 min 0 min 14,5 km/h (3 Bft)
01.02.2012 16:26 13,5 C -2,6 C 0,0 UV-I 0,0 C 30 % 47 % 0 % 1029,8 hPa 0,0 l/m 12,4 km/h (3 Bft) 0 min 0 min 16,1 km/h (3 Bft)
01.02.2012 16:28 13,5 C -2,6 C 0,0 UV-I 0,0 C 31 % 48 % 0 % 1029,8 hPa 0,0 l/m 11,2 km/h (2 Bft) 0 min 0 min 16,1 km/h (3 Bft)
01.02.2012 16:30 13,3 C -2,6 C 0,0 UV-I 0,0 C 31 % 48 % 0 % 1029,8 hPa 0,0 l/m 10,8 km/h (2 Bft) 0 min 0 min 13,7 km/h (3 Bft)
01.02.2012 16:32 13,4 C -2,6 C 0,0 UV-I 0,0 C 31 % 48 % 0 % 1029,8 hPa 0,0 l/m 11,2 km/h (2 Bft) 0 min 0 min 17,3 km/h (3 Bft)
01.02.2012 16:34 13,4 C -2,7 C 0,0 UV-I 0,0 C 31 % 48 % 0 % 1029,8 hPa 0,0 l/m 11,2 km/h (2 Bft) 0 min 0 min 17,3 km/h (3 Bft)
01.02.2012 16:36 13,2 C -2,6 C 0,0 UV-I 0,0 C 31 % 48 % 0 % 1029,8 hPa 0,0 l/m 11,6 km/h (2 Bft) 0 min 0 min 22,1 km/h (4 Bft)
01.02.2012 16:38 13,1 C -2,8 C 0,0 UV-I 0,0 C 31 % 48 % 0 % 1029,8 hPa 0,0 l/m 12,4 km/h (3 Bft) 0 min 0 min 25,3 km/h (4 Bft)
01.02.2012 16:40 13,1 C -2,6 C 0,0 UV-I 0,0 C 31 % 48 % 0 % 1029,8 hPa 0,0 l/m 12,4 km/h (3 Bft) 0 min 0 min 25,3 km/h (4 Bft)
01.02.2012 16:42 13,2 C -2,8 C 0,0 UV-I 0,0 C 31 % 48 % 0 % 1029,8 hPa 0,0 l/m 12,8 km/h (3 Bft) 0 min 0 min 17,7 km/h (3 Bft)
01.02.2012 16:44 13,2 C -2,8 C 0,0 UV-I 0,0 C 31 % 48 % 0 % 1029,9 hPa 0,0 l/m 12,8 km/h (3 Bft) 0 min 0 min 17,7 km/h (3 Bft)
01.02.2012 16:46 13,1 C -2,9 C 0,0 UV-I 0,0 C 31 % 48 % 0 % 1029,9 hPa 0,0 l/m 12,4 km/h (3 Bft) 0 min 0 min 15,3 km/h (3 Bft)
01.02.2012 16:48 12,9 C -2,9 C 0,0 UV-I 0,0 C 31 % 48 % 0 % 1029,9 hPa 0,0 l/m 11,6 km/h (2 Bft) 0 min 0 min 18,9 km/h (3 Bft)
01.02.2012 16:50 13,0 C -3,0 C 0,0 UV-I 0,0 C 31 % 48 % 0 % 1029,9 hPa 0,0 l/m 11,6 km/h (2 Bft) 0 min 0 min 18,9 km/h (3 Bft)
01.02.2012 16:52 12,8 C -3,0 C 0,0 UV-I 0,0 C 31 % 48 % 0 % 1029,9 hPa 0,0 l/m 12,0 km/h (2 Bft) 0 min 0 min 16,1 km/h (3 Bft)
01.02.2012 16:54 12,8 C -3,0 C 0,0 UV-I 0,0 C 31 % 48 % 0 % 1029,9 hPa 0,0 l/m 11,6 km/h (2 Bft) 0 min 0 min 16,1 km/h (3 Bft)
01.02.2012 16:56 12,8 C -3,0 C 0,0 UV-I 0,0 C 31 % 48 % 0 % 1029,9 hPa 0,0 l/m 10,8 km/h (2 Bft) 0 min 0 min 12,8 km/h (3 Bft)
01.02.2012 16:58 12,8 C -3,0 C 0,0 UV-I 0,0 C 31 % 48 % 0 % 1029,9 hPa 0,0 l/m 10,8 km/h (2 Bft) 0 min 0 min 7,2 km/h (2 Bft)
01.02.2012 17:00 12,8 C -3,0 C 0,0 UV-I 0,0 C 31 % 48 % 0 % 1029,9 hPa 0,0 l/m 10,8 km/h (2 Bft) 0 min 0 min 20,1 km/h (4 Bft)
01.02.2012 17:02 12,7 C -3,0 C 0,0 UV-I 0,0 C 31 % 48 % 0 % 1029,9 hPa 0,0 l/m 10,8 km/h (2 Bft) 0 min 0 min 20,1 km/h (4 Bft)
01.02.2012 17:04 12,7 C -3,0 C 0,0 UV-I 0,0 C 31 % 48 % 0 % 1029,8 hPa 0,0 l/m 11,2 km/h (2 Bft) 0 min 0 min 16,1 km/h (3 Bft)
01.02.2012 17:06 12,6 C -3,2 C 0,0 UV-I 0,0 C 31 % 48 % 0 % 1029,8 hPa 0,0 l/m 11,6 km/h (2 Bft) 0 min 0 min 16,9 km/h (3 Bft)
01.02.2012 17:08 12,6 C -3,3 C 0,0 UV-I 0,0 C 31 % 49 % 0 % 1029,8 hPa 0,0 l/m 12,0 km/h (2 Bft) 0 min 0 min 16,9 km/h (3 Bft)
01.02.2012 17:10 12,4 C -3,3 C 0,0 UV-I 0,0 C 31 % 48 % 0 % 1029,8 hPa 0,0 l/m 13,3 km/h (3 Bft) 0 min 0 min 17,7 km/h (3 Bft)
01.02.2012 17:12 12,5 C -3,2 C 0,0 UV-I 0,0 C 31 % 48 % 0 % 1029,8 hPa 0,0 l/m 12,0 km/h (2 Bft) 0 min 0 min 17,7 km/h (3 Bft)
01.02.2012 17:14 12,3 C -3,4 C 0,0 UV-I 0,0 C 31 % 48 % 0 % 1029,8 hPa 0,0 l/m 12,0 km/h (2 Bft) 0 min 0 min 14,5 km/h (3 Bft)
01.02.2012 17:16 12,4 C -3,4 C 0,0 UV-I 0,0 C 31 % 48 % 0 % 1029,8 hPa 0,0 l/m 11,6 km/h (2 Bft) 0 min 0 min 14,5 km/h (3 Bft)
01.02.2012 17:18 12,4 C -3,4 C 0,0 UV-I 0,0 C 31 % 49 % 0 % 1029,8 hPa 0,0 l/m 11,6 km/h (2 Bft) 0 min 0 min 13,3 km/h (3 Bft)
01.02.2012 17:20 12,3 C -3,4 C 0,0 UV-I 0,0 C 31 % 48 % 0 % 1029,8 hPa 0,0 l/m 12,4 km/h (3 Bft) 0 min 0 min 22,1 km/h (4 Bft)
01.02.2012 17:22 12,3 C -3,4 C 0,0 UV-I 0,0 C 31 % 49 % 0 % 1029,8 hPa 0,0 l/m 12,4 km/h (3 Bft) 0 min 0 min 22,1 km/h (4 Bft)
01.02.2012 17:24 12,3 C -3,4 C 0,0 UV-I 0,0 C 31 % 49 % 0 % 1029,8 hPa 0,0 l/m 12,0 km/h (2 Bft) 0 min 0 min 12,4 km/h (3 Bft)
01.02.2012 17:26 12,2 C -3,4 C 0,0 UV-I 0,0 C 31 % 49 % 0 % 1029,8 hPa 0,0 l/m 11,2 km/h (2 Bft) 0 min 0 min 12,8 km/h (3 Bft)
01.02.2012 17:28 12,2 C -3,6 C 0,0 UV-I 0,0 C 31 % 49 % 0 % 1029,8 hPa 0,0 l/m 11,2 km/h (2 Bft) 0 min 0 min 24,9 km/h (4 Bft)
01.02.2012 17:30 12,1 C -3,6 C 0,0 UV-I 0,0 C 31 % 49 % 0 % 1029,8 hPa 0,0 l/m 12,0 km/h (2 Bft) 0 min 0 min 24,9 km/h (4 Bft)
01.02.2012 17:32 12,1 C -3,6 C 0,0 UV-I 0,0 C 31 % 48 % 0 % 1029,8 hPa 0,0 l/m 12,0 km/h (2 Bft) 0 min 0 min 12,8 km/h (3 Bft)
01.02.2012 17:34 11,9 C -3,6 C 0,0 UV-I 0,0 C 31 % 49 % 0 % 1029,8 hPa 0,0 l/m 11,6 km/h (2 Bft) 0 min 0 min 12,0 km/h (2 Bft)
01.02.2012 17:36 12,0 C -3,6 C 0,0 UV-I 0,0 C 31 % 49 % 0 % 1029,8 hPa 0,0 l/m 10,8 km/h (2 Bft) 0 min 0 min 8,0 km/h (2 Bft)
01.02.2012 17:38 12,0 C -3,7 C 0,0 UV-I 0,0 C 31 % 49 % 0 % 1029,8 hPa 0,0 l/m 10,4 km/h (2 Bft) 0 min 0 min 8,8 km/h (2 Bft)
01.02.2012 17:40 12,0 C -3,8 C 0,0 UV-I 0,0 C 31 % 49 % 0 % 1029,8 hPa 0,0 l/m 8,8 km/h (2 Bft) 0 min 0 min 8,8 km/h (2 Bft)
01.02.2012 17:42 11,8 C -3,8 C 0,0 UV-I 0,0 C 31 % 49 % 0 % 1029,8 hPa 0,0 l/m 7,6 km/h (2 Bft) 0 min 0 min 13,3 km/h (3 Bft)
01.02.2012 17:44 11,8 C -3,8 C 0,0 UV-I 0,0 C 31 % 49 % 0 % 1030,0 hPa 0,0 l/m 7,2 km/h (2 Bft) 0 min 0 min 13,3 km/h (3 Bft)
01.02.2012 17:46 11,8 C -3,8 C 0,0 UV-I 0,0 C 31 % 50 % 0 % 1030,0 hPa 0,0 l/m 7,2 km/h (2 Bft) 0 min 0 min 15,3 km/h (3 Bft)
01.02.2012 17:48 11,8 C -3,9 C 0,0 UV-I 0,0 C 31 % 49 % 0 % 1030,0 hPa 0,0 l/m 8,8 km/h (2 Bft) 0 min 0 min 15,3 km/h (3 Bft)
01.02.2012 17:50 11,8 C -3,8 C 0,0 UV-I 0,0 C 31 % 50 % 0 % 1030,0 hPa 0,0 l/m 8,4 km/h (2 Bft) 0 min 0 min 12,0 km/h (2 Bft)
01.02.2012 17:52 11,8 C -3,8 C 0,0 UV-I 0,0 C 32 % 49 % 0 % 1030,0 hPa 0,0 l/m 10,0 km/h (2 Bft) 0 min 0 min 14,1 km/h (3 Bft)
01.02.2012 17:54 11,6 C -3,8 C 0,0 UV-I 0,0 C 32 % 49 % 0 % 1030,0 hPa 0,0 l/m 11,2 km/h (2 Bft) 0 min 0 min 20,9 km/h (4 Bft)
01.02.2012 17:56 11,6 C -3,8 C 0,0 UV-I 0,0 C 32 % 48 % 0 % 1030,0 hPa 0,0 l/m 12,0 km/h (2 Bft) 0 min 0 min 20,9 km/h (4 Bft)
01.02.2012 17:58 11,6 C -3,8 C 0,0 UV-I 0,0 C 32 % 49 % 0 % 1030,0 hPa 0,0 l/m 12,4 km/h (3 Bft) 0 min 0 min 21,7 km/h (4 Bft)
01.02.2012 18:00 11,6 C -3,8 C 0,0 UV-I 0,0 C 32 % 49 % 0 % 1030,0 hPa 0,0 l/m 13,7 km/h (3 Bft) 0 min 0 min 21,7 km/h (4 Bft)
01.02.2012 18:02 11,6 C -4,0 C 0,0 UV-I 0,0 C 32 % 49 % 0 % 1030,0 hPa 0,0 l/m 13,3 km/h (3 Bft) 0 min 0 min 15,3 km/h (3 Bft)
01.02.2012 18:04 11,6 C -4,0 C 0,0 UV-I 0,0 C 32 % 49 % 0 % 1030,0 hPa 0,0 l/m 13,3 km/h (3 Bft) 0 min 0 min 17,3 km/h (3 Bft)
01.02.2012 18:06 11,6 C -4,0 C 0,0 UV-I 0,0 C 32 % 49 % 0 % 1030,0 hPa 0,0 l/m 12,4 km/h (3 Bft) 0 min 0 min 17,3 km/h (3 Bft)
01.02.2012 18:08 11,4 C -4,1 C 0,0 UV-I 0,0 C 32 % 49 % 0 % 1030,0 hPa 0,0 l/m 12,8 km/h (3 Bft) 0 min 0 min 16,5 km/h (3 Bft)
01.02.2012 18:10 11,5 C -4,1 C 0,0 UV-I 0,0 C 32 % 48 % 0 % 1030,0 hPa 0,0 l/m 12,0 km/h (2 Bft) 0 min 0 min 18,1 km/h (3 Bft)
01.02.2012 18:12 11,5 C -4,1 C 0,0 UV-I 0,0 C 32 % 49 % 0 % 1030,0 hPa 0,0 l/m 11,6 km/h (2 Bft) 0 min 0 min 18,1 km/h (3 Bft)
01.02.2012 18:14 11,5 C -4,1 C 0,0 UV-I 0,0 C 32 % 49 % 0 % 1030,0 hPa 0,0 l/m 12,0 km/h (2 Bft) 0 min 0 min 11,6 km/h (2 Bft)
01.02.2012 18:16 11,4 C -4,2 C 0,0 UV-I 0,0 C 32 % 49 % 0 % 1030,0 hPa 0,0 l/m 12,4 km/h (3 Bft) 0 min 0 min 12,0 km/h (2 Bft)
01.02.2012 18:18 11,4 C -4,2 C 0,0 UV-I 0,0 C 32 % 49 % 0 % 1030,0 hPa 0,0 l/m 12,0 km/h (2 Bft) 0 min 0 min 16,1 km/h (3 Bft)
01.02.2012 18:20 11,4 C -4,2 C 0,0 UV-I 0,0 C 32 % 49 % 0 % 1030,0 hPa 0,0 l/m 12,0 km/h (2 Bft) 0 min 0 min 18,1 km/h (3 Bft)
01.02.2012 18:22 11,4 C -4,2 C 0,0 UV-I 0,0 C 32 % 49 % 0 % 1030,0 hPa 0,0 l/m 12,0 km/h (2 Bft) 0 min 0 min 18,1 km/h (3 Bft)
01.02.2012 18:24 11,4 C -4,2 C 0,0 UV-I 0,0 C 32 % 49 % 0 % 1029,8 hPa 0,0 l/m 12,0 km/h (2 Bft) 0 min 0 min 18,9 km/h (3 Bft)
01.02.2012 18:26 11,2 C -4,2 C 0,0 UV-I 0,0 C 32 % 49 % 0 % 1029,8 hPa 0,0 l/m 12,4 km/h (3 Bft) 0 min 0 min 21,3 km/h (4 Bft)
01.02.2012 18:28 11,2 C -4,2 C 0,0 UV-I 0,0 C 32 % 49 % 0 % 1029,8 hPa 0,0 l/m 12,8 km/h (3 Bft) 0 min 0 min 21,3 km/h (4 Bft)
01.02.2012 18:30 11,2 C -4,2 C 0,0 UV-I 0,0 C 32 % 49 % 0 % 1029,8 hPa 0,0 l/m 12,4 km/h (3 Bft) 0 min 0 min 17,3 km/h (3 Bft)
01.02.2012 18:32 11,3 C -4,3 C 0,0 UV-I 0,0 C 32 % 49 % 0 % 1029,8 hPa 0,0 l/m 12,4 km/h (3 Bft) 0 min 0 min 14,5 km/h (3 Bft)
01.02.2012 18:34 11,1 C -4,2 C 0,0 UV-I 0,0 C 32 % 49 % 0 % 1029,8 hPa 0,0 l/m 12,4 km/h (3 Bft) 0 min 0 min 16,5 km/h (3 Bft)
01.02.2012 18:36 11,1 C -4,2 C 0,0 UV-I 0,0 C 32 % 48 % 0 % 1029,8 hPa 0,0 l/m 12,8 km/h (3 Bft) 0 min 0 min 16,9 km/h (3 Bft)
01.02.2012 18:38 11,1 C -4,2 C 0,0 UV-I 0,0 C 32 % 48 % 0 % 1029,8 hPa 0,0 l/m 12,4 km/h (3 Bft) 0 min 0 min 17,7 km/h (3 Bft)
01.02.2012 18:40 11,2 C -4,2 C 0,0 UV-I 0,0 C 32 % 48 % 0 % 1029,8 hPa 0,0 l/m 12,4 km/h (3 Bft) 0 min 0 min 17,7 km/h (3 Bft)
01.02.2012 18:42 11,2 C -4,4 C 0,0 UV-I 0,0 C 32 % 48 % 0 % 1029,8 hPa 0,0 l/m 12,4 km/h (3 Bft) 0 min 0 min 14,1 km/h (3 Bft)
01.02.2012 18:44 11,2 C -4,4 C 0,0 UV-I 0,0 C 32 % 48 % 0 % 1029,8 hPa 0,0 l/m 12,4 km/h (3 Bft) 0 min 0 min 14,1 km/h (3 Bft)
01.02.2012 18:46 11,2 C -4,5 C 0,0 UV-I 0,0 C 32 % 49 % 0 % 1029,8 hPa 0,0 l/m 11,2 km/h (2 Bft) 0 min 0 min 16,5 km/h (3 Bft)
01.02.2012 18:48 11,2 C -4,5 C 0,0 UV-I 0,0 C 32 % 49 % 0 % 1029,8 hPa 0,0 l/m 10,0 km/h (2 Bft) 0 min 0 min 16,5 km/h (3 Bft)
01.02.2012 18:50 11,2 C -4,5 C 0,0 UV-I 0,0 C 32 % 49 % 0 % 1029,8 hPa 0,0 l/m 9,2 km/h (2 Bft) 0 min 0 min 12,4 km/h (3 Bft)
01.02.2012 18:52 11,2 C -4,6 C 0,0 UV-I 0,0 C 32 % 49 % 0 % 1029,8 hPa 0,0 l/m 9,2 km/h (2 Bft) 0 min 0 min 12,4 km/h (3 Bft)
01.02.2012 18:54 11,1 C -4,6 C 0,0 UV-I 0,0 C 32 % 49 % 0 % 1029,8 hPa 0,0 l/m 8,4 km/h (2 Bft) 0 min 0 min 11,2 km/h (2 Bft)
01.02.2012 18:56 11,1 C -4,6 C 0,0 UV-I 0,0 C 32 % 49 % 0 % 1029,8 hPa 0,0 l/m 9,6 km/h (2 Bft) 0 min 0 min 14,9 km/h (3 Bft)
01.02.2012 18:58 11,1 C -4,6 C 0,0 UV-I 0,0 C 32 % 49 % 0 % 1029,8 hPa 0,0 l/m 10,0 km/h (2 Bft) 0 min 0 min 14,9 km/h (3 Bft)
01.02.2012 19:00 11,1 C -4,6 C 0,0 UV-I 0,0 C 32 % 49 % 0 % 1029,8 hPa 0,0 l/m 10,8 km/h (2 Bft) 0 min 0 min 10,8 km/h (2 Bft)
01.02.2012 19:02 11,1 C -4,6 C 0,0 UV-I 0,0 C 32 % 49 % 0 % 1029,8 hPa 0,0 l/m 10,8 km/h (2 Bft) 0 min 0 min 9,2 km/h (2 Bft)
01.02.2012 19:04 11,1 C -4,6 C 0,0 UV-I 0,0 C 32 % 49 % 0 % 1029,8 hPa 0,0 l/m 11,2 km/h (2 Bft) 0 min 0 min 15,3 km/h (3 Bft)
01.02.2012 19:06 11,1 C -4,6 C 0,0 UV-I 0,0 C 32 % 49 % 0 % 1029,8 hPa 0,0 l/m 10,8 km/h (2 Bft) 0 min 0 min 24,9 km/h (4 Bft)
01.02.2012 19:08 11,1 C -4,6 C 0,0 UV-I 0,0 C 32 % 49 % 0 % 1029,8 hPa 0,0 l/m 10,0 km/h (2 Bft) 0 min 0 min 24,9 km/h (4 Bft)
01.02.2012 19:10 10,9 C -4,6 C 0,0 UV-I 0,0 C 32 % 49 % 0 % 1029,8 hPa 0,0 l/m 10,4 km/h (2 Bft) 0 min 0 min 18,9 km/h (3 Bft)
01.02.2012 19:12 11,0 C -4,6 C 0,0 UV-I 0,0 C 32 % 48 % 0 % 1029,8 hPa 0,0 l/m 10,4 km/h (2 Bft) 0 min 0 min 18,9 km/h (3 Bft)
01.02.2012 19:14 11,0 C -4,6 C 0,0 UV-I 0,0 C 32 % 48 % 0 % 1029,8 hPa 0,0 l/m 12,0 km/h (2 Bft) 0 min 0 min 16,5 km/h (3 Bft)
01.02.2012 19:16 11,0 C -4,6 C 0,0 UV-I 0,0 C 32 % 48 % 0 % 1029,8 hPa 0,0 l/m 12,4 km/h (3 Bft) 0 min 0 min 16,9 km/h (3 Bft)
01.02.2012 19:18 11,0 C -4,8 C 0,0 UV-I 0,0 C 32 % 48 % 0 % 1029,8 hPa 0,0 l/m 12,8 km/h (3 Bft) 0 min 0 min 16,9 km/h (3 Bft)
01.02.2012 19:20 11,0 C -4,8 C 0,0 UV-I 0,0 C 32 % 49 % 0 % 1029,8 hPa 0,0 l/m 12,4 km/h (3 Bft) 0 min 0 min 15,3 km/h (3 Bft)
01.02.2012 19:22 11,0 C -4,8 C 0,0 UV-I 0,0 C 32 % 49 % 0 % 1029,8 hPa 0,0 l/m 11,6 km/h (2 Bft) 0 min 0 min 15,3 km/h (3 Bft)
01.02.2012 19:24 11,0 C -4,8 C 0,0 UV-I 0,0 C 32 % 49 % 0 % 1029,8 hPa 0,0 l/m 11,2 km/h (2 Bft) 0 min 0 min 15,3 km/h (3 Bft)
01.02.2012 19:26 11,0 C -4,9 C 0,0 UV-I 0,0 C 32 % 48 % 0 % 1029,8 hPa 0,0 l/m 11,6 km/h (2 Bft) 0 min 0 min 13,3 km/h (3 Bft)
01.02.2012 19:28 11,0 C -4,9 C 0,0 UV-I 0,0 C 32 % 49 % 0 % 1029,8 hPa 0,0 l/m 11,6 km/h (2 Bft) 0 min 0 min 20,5 km/h (4 Bft)
01.02.2012 19:30 10,8 C -4,9 C 0,0 UV-I 0,0 C 32 % 48 % 0 % 1029,8 hPa 0,0 l/m 12,8 km/h (3 Bft) 0 min 0 min 22,9 km/h (4 Bft)
01.02.2012 19:32 10,8 C -4,9 C 0,0 UV-I 0,0 C 32 % 48 % 0 % 1029,8 hPa 0,0 l/m 13,7 km/h (3 Bft) 0 min 0 min 22,9 km/h (4 Bft)
01.02.2012 19:34 10,8 C -5,0 C 0,0 UV-I 0,0 C 32 % 49 % 0 % 1029,8 hPa 0,0 l/m 13,3 km/h (3 Bft) 0 min 0 min 21,7 km/h (4 Bft)
01.02.2012 19:36 10,8 C -5,0 C 0,0 UV-I 0,0 C 32 % 49 % 0 % 1029,8 hPa 0,0 l/m 12,4 km/h (3 Bft) 0 min 0 min 21,7 km/h (4 Bft)
01.02.2012 19:38 10,9 C -5,0 C 0,0 UV-I 0,0 C 32 % 49 % 0 % 1029,8 hPa 0,0 l/m 12,8 km/h (3 Bft) 0 min 0 min 28,9 km/h (5 Bft)
01.02.2012 19:40 10,8 C -5,0 C 0,0 UV-I 0,0 C 32 % 49 % 0 % 1029,8 hPa 0,0 l/m 12,0 km/h (2 Bft) 0 min 0 min 28,9 km/h (5 Bft)
01.02.2012 19:42 10,8 C -5,0 C 0,0 UV-I 0,0 C 32 % 49 % 0 % 1029,8 hPa 0,0 l/m 11,2 km/h (2 Bft) 0 min 0 min 18,9 km/h (3 Bft)
01.02.2012 19:44 10,8 C -5,0 C 0,0 UV-I 0,0 C 32 % 49 % 0 % 1030,1 hPa 0,0 l/m 11,2 km/h (2 Bft) 0 min 0 min 16,5 km/h (3 Bft)
01.02.2012 19:46 10,8 C -5,1 C 0,0 UV-I 0,0 C 32 % 49 % 0 % 1030,1 hPa 0,0 l/m 10,8 km/h (2 Bft) 0 min 0 min 16,5 km/h (3 Bft)
01.02.2012 19:48 10,8 C -5,0 C 0,0 UV-I 0,0 C 32 % 49 % 0 % 1030,1 hPa 0,0 l/m 10,8 km/h (2 Bft) 0 min 0 min 12,4 km/h (3 Bft)
01.02.2012 19:50 10,8 C -5,0 C 0,0 UV-I 0,0 C 32 % 49 % 0 % 1030,1 hPa 0,0 l/m 10,0 km/h (2 Bft) 0 min 0 min 12,4 km/h (3 Bft)
01.02.2012 19:52 10,8 C -5,0 C 0,0 UV-I 0,0 C 32 % 50 % 0 % 1030,1 hPa 0,0 l/m 10,0 km/h (2 Bft) 0 min 0 min 12,0 km/h (2 Bft)
01.02.2012 19:54 10,8 C -5,2 C 0,0 UV-I 0,0 C 32 % 50 % 0 % 1030,1 hPa 0,0 l/m 9,6 km/h (2 Bft) 0 min 0 min 12,0 km/h (2 Bft)
01.02.2012 19:56 10,8 C -5,2 C 0,0 UV-I 0,0 C 32 % 50 % 0 % 1030,1 hPa 0,0 l/m 9,2 km/h (2 Bft) 0 min 0 min 10,8 km/h (2 Bft)
01.02.2012 19:58 10,8 C -5,2 C 0,0 UV-I 0,0 C 32 % 50 % 0 % 1030,1 hPa 0,0 l/m 9,2 km/h (2 Bft) 0 min 0 min 15,7 km/h (3 Bft)
01.02.2012 20:00 10,8 C -5,3 C 0,0 UV-I 0,0 C 32 % 50 % 0 % 1030,1 hPa 0,0 l/m 10,4 km/h (2 Bft) 0 min 0 min 31,7 km/h (5 Bft)
01.02.2012 20:02 10,8 C -5,3 C 0,0 UV-I 0,0 C 32 % 50 % 0 % 1030,1 hPa 0,0 l/m 10,4 km/h (2 Bft) 0 min 0 min 31,7 km/h (5 Bft)
01.02.2012 20:04 10,8 C -5,3 C 0,0 UV-I 0,0 C 32 % 50 % 0 % 1030,0 hPa 0,0 l/m 10,0 km/h (2 Bft) 0 min 0 min 8,8 km/h (2 Bft)
01.02.2012 20:06 10,8 C -5,3 C 0,0 UV-I 0,0 C 32 % 50 % 0 % 1030,0 hPa 0,0 l/m 10,0 km/h (2 Bft) 0 min 0 min 12,4 km/h (3 Bft)
01.02.2012 20:08 10,8 C -5,4 C 0,0 UV-I 0,0 C 32 % 50 % 0 % 1030,0 hPa 0,0 l/m 10,4 km/h (2 Bft) 0 min 0 min 26,5 km/h (4 Bft)
01.02.2012 20:10 10,8 C -5,4 C 0,0 UV-I 0,0 C 32 % 50 % 0 % 1030,0 hPa 0,0 l/m 10,0 km/h (2 Bft) 0 min 0 min 26,5 km/h (4 Bft)
01.02.2012 20:12 10,8 C -5,4 C 0,0 UV-I 0,0 C 32 % 50 % 0 % 1030,0 hPa 0,0 l/m 9,2 km/h (2 Bft) 0 min 0 min 10,8 km/h (2 Bft)
01.02.2012 20:14 10,8 C -5,4 C 0,0 UV-I 0,0 C 32 % 50 % 0 % 1030,0 hPa 0,0 l/m 9,2 km/h (2 Bft) 0 min 0 min 14,1 km/h (3 Bft)
01.02.2012 20:16 10,8 C -5,4 C 0,0 UV-I 0,0 C 32 % 51 % 0 % 1030,0 hPa 0,0 l/m 9,6 km/h (2 Bft) 0 min 0 min 14,9 km/h (3 Bft)
01.02.2012 20:18 10,8 C -5,4 C 0,0 UV-I 0,0 C 32 % 51 % 0 % 1030,0 hPa 0,0 l/m 9,6 km/h (2 Bft) 0 min 0 min 14,9 km/h (3 Bft)
01.02.2012 20:20 10,8 C -5,4 C 0,0 UV-I 0,0 C 32 % 51 % 0 % 1030,0 hPa 0,0 l/m 8,8 km/h (2 Bft) 0 min 0 min 13,3 km/h (3 Bft)
01.02.2012 20:22 10,8 C -5,4 C 0,0 UV-I 0,0 C 32 % 51 % 0 % 1030,0 hPa 0,0 l/m 8,8 km/h (2 Bft) 0 min 0 min 13,3 km/h (3 Bft)
01.02.2012 20:24 10,8 C -5,4 C 0,0 UV-I 0,0 C 32 % 51 % 0 % 1030,0 hPa 0,0 l/m 9,6 km/h (2 Bft) 0 min 0 min 11,2 km/h (2 Bft)
01.02.2012 20:26 10,8 C -5,4 C 0,0 UV-I 0,0 C 32 % 51 % 0 % 1030,0 hPa 0,0 l/m 9,6 km/h (2 Bft) 0 min 0 min 11,2 km/h (2 Bft)
01.02.2012 20:28 10,6 C -5,4 C 0,0 UV-I 0,0 C 32 % 51 % 0 % 1030,0 hPa 0,0 l/m 9,6 km/h (2 Bft) 0 min 0 min 12,8 km/h (3 Bft)
01.02.2012 20:30 10,6 C -5,4 C 0,0 UV-I 0,0 C 32 % 51 % 0 % 1030,0 hPa 0,0 l/m 10,4 km/h (2 Bft) 0 min 0 min 15,3 km/h (3 Bft)
01.02.2012 20:32 10,7 C -5,4 C 0,0 UV-I 0,0 C 32 % 51 % 0 % 1030,0 hPa 0,0 l/m 10,8 km/h (2 Bft) 0 min 0 min 15,3 km/h (3 Bft)
01.02.2012 20:34 10,7 C -5,4 C 0,0 UV-I 0,0 C 32 % 51 % 0 % 1030,0 hPa 0,0 l/m 11,2 km/h (2 Bft) 0 min 0 min 14,1 km/h (3 Bft)
01.02.2012 20:36 10,7 C -5,6 C 0,0 UV-I 0,0 C 32 % 51 % 0 % 1030,0 hPa 0,0 l/m 10,8 km/h (2 Bft) 0 min 0 min 11,2 km/h (2 Bft)
01.02.2012 20:38 10,7 C -5,6 C 0,0 UV-I 0,0 C 32 % 51 % 0 % 1030,0 hPa 0,0 l/m 11,2 km/h (2 Bft) 0 min 0 min 16,1 km/h (3 Bft)
01.02.2012 20:40 10,6 C -5,6 C 0,0 UV-I 0,0 C 32 % 51 % 0 % 1030,0 hPa 0,0 l/m 11,6 km/h (2 Bft) 0 min 0 min 17,3 km/h (3 Bft)
01.02.2012 20:42 10,7 C -5,6 C 0,0 UV-I 0,0 C 32 % 51 % 0 % 1030,0 hPa 0,0 l/m 12,8 km/h (3 Bft) 0 min 0 min 17,3 km/h (3 Bft)
01.02.2012 20:44 10,7 C -5,6 C 0,0 UV-I 0,0 C 32 % 51 % 0 % 1030,2 hPa 0,0 l/m 12,8 km/h (3 Bft) 0 min 0 min 17,3 km/h (3 Bft)
01.02.2012 20:46 10,7 C -5,6 C 0,0 UV-I 0,0 C 32 % 51 % 0 % 1030,2 hPa 0,0 l/m 13,7 km/h (3 Bft) 0 min 0 min 16,1 km/h (3 Bft)
01.02.2012 20:48 10,6 C -5,6 C 0,0 UV-I 0,0 C 32 % 51 % 0 % 1030,2 hPa 0,0 l/m 14,5 km/h (3 Bft) 0 min 0 min 20,1 km/h (4 Bft)
01.02.2012 20:50 10,6 C -5,6 C 0,0 UV-I 0,0 C 32 % 50 % 0 % 1030,2 hPa 0,0 l/m 14,9 km/h (3 Bft) 0 min 0 min 23,3 km/h (4 Bft)
01.02.2012 20:52 10,6 C -5,6 C 0,0 UV-I 0,0 C 32 % 51 % 0 % 1030,2 hPa 0,0 l/m 13,7 km/h (3 Bft) 0 min 0 min 23,3 km/h (4 Bft)
01.02.2012 20:54 10,6 C -5,6 C 0,0 UV-I 0,0 C 32 % 51 % 0 % 1030,2 hPa 0,0 l/m 12,8 km/h (3 Bft) 0 min 0 min 20,1 km/h (4 Bft)
01.02.2012 20:56 10,6 C -5,6 C 0,0 UV-I 0,0 C 32 % 51 % 0 % 1030,2 hPa 0,0 l/m 13,7 km/h (3 Bft) 0 min 0 min 20,1 km/h (4 Bft)
01.02.2012 20:58 10,6 C -5,6 C 0,0 UV-I 0,0 C 32 % 51 % 0 % 1030,2 hPa 0,0 l/m 13,3 km/h (3 Bft) 0 min 0 min 20,9 km/h (4 Bft)
01.02.2012 21:00 10,6 C -5,7 C 0,0 UV-I 0,0 C 32 % 51 % 0 % 1030,2 hPa 0,0 l/m 13,7 km/h (3 Bft) 0 min 0 min 20,9 km/h (4 Bft)
01.02.2012 21:02 10,6 C -5,7 C 0,0 UV-I 0,0 C 32 % 51 % 0 % 1030,2 hPa 0,0 l/m 12,8 km/h (3 Bft) 0 min 0 min 17,7 km/h (3 Bft)
01.02.2012 21:04 10,6 C -5,7 C 0,0 UV-I 0,0 C 32 % 51 % 0 % 1030,2 hPa 0,0 l/m 13,7 km/h (3 Bft) 0 min 0 min 30,5 km/h (5 Bft)
01.02.2012 21:06 10,4 C -5,6 C 0,0 UV-I 0,0 C 32 % 51 % 0 % 1030,2 hPa 0,0 l/m 13,7 km/h (3 Bft) 0 min 0 min 30,5 km/h (5 Bft)
01.02.2012 21:08 10,4 C -5,7 C 0,0 UV-I 0,0 C 32 % 51 % 0 % 1030,2 hPa 0,0 l/m 13,7 km/h (3 Bft) 0 min 0 min 24,1 km/h (4 Bft)
01.02.2012 21:10 10,4 C -5,8 C 0,0 UV-I 0,0 C 32 % 51 % 0 % 1030,2 hPa 0,0 l/m 13,3 km/h (3 Bft) 0 min 0 min 19,3 km/h (3 Bft)
01.02.2012 21:12 10,4 C -5,8 C 0,0 UV-I 0,0 C 32 % 51 % 0 % 1030,2 hPa 0,0 l/m 13,3 km/h (3 Bft) 0 min 0 min 13,3 km/h (3 Bft)
01.02.2012 21:14 10,4 C -5,8 C 0,0 UV-I 0,0 C 32 % 51 % 0 % 1030,2 hPa 0,0 l/m 13,7 km/h (3 Bft) 0 min 0 min 13,7 km/h (3 Bft)
01.02.2012 21:16 10,4 C -5,8 C 0,0 UV-I 0,0 C 32 % 51 % 0 % 1030,2 hPa 0,0 l/m 12,4 km/h (3 Bft) 0 min 0 min 13,7 km/h (3 Bft)
01.02.2012 21:18 10,4 C -5,8 C 0,0 UV-I 0,0 C 32 % 51 % 0 % 1030,2 hPa 0,0 l/m 12,0 km/h (2 Bft) 0 min 0 min 16,9 km/h (3 Bft)
01.02.2012 21:20 10,4 C -5,8 C 0,0 UV-I 0,0 C 32 % 51 % 0 % 1030,2 hPa 0,0 l/m 11,6 km/h (2 Bft) 0 min 0 min 16,9 km/h (3 Bft)
01.02.2012 21:22 10,4 C -5,8 C 0,0 UV-I 0,0 C 32 % 52 % 0 % 1030,2 hPa 0,0 l/m 11,2 km/h (2 Bft) 0 min 0 min 16,1 km/h (3 Bft)
01.02.2012 21:24 10,4 C -5,8 C 0,0 UV-I 0,0 C 32 % 52 % 0 % 1030,1 hPa 0,0 l/m 11,2 km/h (2 Bft) 0 min 0 min 19,3 km/h (3 Bft)
01.02.2012 21:26 10,4 C -5,8 C 0,0 UV-I 0,0 C 32 % 51 % 0 % 1030,1 hPa 0,0 l/m 11,6 km/h (2 Bft) 0 min 0 min 19,3 km/h (3 Bft)
01.02.2012 21:28 10,4 C -5,9 C 0,0 UV-I 0,0 C 32 % 51 % 0 % 1030,1 hPa 0,0 l/m 11,6 km/h (2 Bft) 0 min 0 min 16,9 km/h (3 Bft)
01.02.2012 21:30 10,4 C -5,8 C 0,0 UV-I 0,0 C 32 % 52 % 0 % 1030,1 hPa 0,0 l/m 12,0 km/h (2 Bft) 0 min 0 min 16,9 km/h (3 Bft)
01.02.2012 21:32 10,4 C -5,8 C 0,0 UV-I 0,0 C 32 % 52 % 0 % 1030,1 hPa 0,0 l/m 12,0 km/h (2 Bft) 0 min 0 min 14,1 km/h (3 Bft)
01.02.2012 21:34 10,4 C -5,8 C 0,0 UV-I 0,0 C 32 % 52 % 0 % 1030,1 hPa 0,0 l/m 11,2 km/h (2 Bft) 0 min 0 min 10,8 km/h (2 Bft)
01.02.2012 21:36 10,4 C -6,0 C 0,0 UV-I 0,0 C 32 % 52 % 0 % 1030,1 hPa 0,0 l/m 11,2 km/h (2 Bft) 0 min 0 min 22,9 km/h (4 Bft)
01.02.2012 21:38 10,4 C -6,0 C 0,0 UV-I 0,0 C 32 % 52 % 0 % 1030,1 hPa 0,0 l/m 11,2 km/h (2 Bft) 0 min 0 min 22,9 km/h (4 Bft)
01.02.2012 21:40 10,4 C -6,0 C 0,0 UV-I 0,0 C 32 % 52 % 0 % 1030,1 hPa 0,0 l/m 10,8 km/h (2 Bft) 0 min 0 min 14,5 km/h (3 Bft)
01.02.2012 21:42 10,4 C -6,0 C 0,0 UV-I 0,0 C 32 % 52 % 0 % 1030,1 hPa 0,0 l/m 10,8 km/h (2 Bft) 0 min 0 min 14,9 km/h (3 Bft)
01.02.2012 21:44 10,4 C -6,0 C 0,0 UV-I 0,0 C 32 % 52 % 0 % 1030,1 hPa 0,0 l/m 11,2 km/h (2 Bft) 0 min 0 min 14,9 km/h (3 Bft)
01.02.2012 21:46 10,4 C -6,0 C 0,0 UV-I 0,0 C 32 % 52 % 0 % 1030,1 hPa 0,0 l/m 11,2 km/h (2 Bft) 0 min 0 min 11,6 km/h (2 Bft)
01.02.2012 21:48 10,4 C -6,0 C 0,0 UV-I 0,0 C 32 % 52 % 0 % 1030,1 hPa 0,0 l/m 11,2 km/h (2 Bft) 0 min 0 min 16,1 km/h (3 Bft)
01.02.2012 21:50 10,4 C -6,1 C 0,0 UV-I 0,0 C 32 % 52 % 0 % 1030,1 hPa 0,0 l/m 11,6 km/h (2 Bft) 0 min 0 min 16,1 km/h (3 Bft)
01.02.2012 21:52 10,4 C -6,1 C 0,0 UV-I 0,0 C 32 % 52 % 0 % 1030,1 hPa 0,0 l/m 11,6 km/h (2 Bft) 0 min 0 min 12,4 km/h (3 Bft)
01.02.2012 21:54 10,4 C -6,1 C 0,0 UV-I 0,0 C 32 % 52 % 0 % 1030,1 hPa 0,0 l/m 10,8 km/h (2 Bft) 0 min 0 min 14,1 km/h (3 Bft)
01.02.2012 21:56 10,4 C -6,0 C 0,0 UV-I 0,0 C 32 % 52 % 0 % 1030,1 hPa 0,0 l/m 10,0 km/h (2 Bft) 0 min 0 min 14,1 km/h (3 Bft)
01.02.2012 21:58 10,5 C -6,2 C 0,0 UV-I 0,0 C 32 % 52 % 0 % 1030,1 hPa 0,0 l/m 10,8 km/h (2 Bft) 0 min 0 min 15,7 km/h (3 Bft)
01.02.2012 22:00 10,5 C -6,2 C 0,0 UV-I 0,0 C 32 % 52 % 0 % 1030,1 hPa 0,0 l/m 10,4 km/h (2 Bft) 0 min 0 min 15,7 km/h (3 Bft)
01.02.2012 22:02 10,5 C -6,2 C 0,0 UV-I 0,0 C 32 % 52 % 0 % 1030,1 hPa 0,0 l/m 10,0 km/h (2 Bft) 0 min 0 min 13,7 km/h (3 Bft)
01.02.2012 22:04 10,5 C -6,2 C 0,0 UV-I 0,0 C 32 % 52 % 0 % 1030,4 hPa 0,0 l/m 10,4 km/h (2 Bft) 0 min 0 min 11,2 km/h (2 Bft)
01.02.2012 22:06 10,3 C -6,2 C 0,0 UV-I 0,0 C 32 % 52 % 0 % 1030,4 hPa 0,0 l/m 10,8 km/h (2 Bft) 0 min 0 min 15,3 km/h (3 Bft)
01.02.2012 22:08 10,5 C -6,2 C 0,0 UV-I 0,0 C 32 % 52 % 0 % 1030,4 hPa 0,0 l/m 10,8 km/h (2 Bft) 0 min 0 min 16,1 km/h (3 Bft)
01.02.2012 22:10 10,3 C -6,2 C 0,0 UV-I 0,0 C 32 % 52 % 0 % 1030,4 hPa 0,0 l/m 10,8 km/h (2 Bft) 0 min 0 min 16,1 km/h (3 Bft)
01.02.2012 22:12 10,5 C -6,2 C 0,0 UV-I 0,0 C 32 % 52 % 0 % 1030,4 hPa 0,0 l/m 10,4 km/h (2 Bft) 0 min 0 min 15,3 km/h (3 Bft)
01.02.2012 22:14 10,5 C -6,2 C 0,0 UV-I 0,0 C 32 % 52 % 0 % 1030,4 hPa 0,0 l/m 9,6 km/h (2 Bft) 0 min 0 min 8,8 km/h (2 Bft)
01.02.2012 22:16 10,5 C -6,3 C 0,0 UV-I 0,0 C 32 % 52 % 0 % 1030,4 hPa 0,0 l/m 8,8 km/h (2 Bft) 0 min 0 min 8,8 km/h (2 Bft)
01.02.2012 22:18 10,3 C -6,2 C 0,0 UV-I 0,0 C 32 % 52 % 0 % 1030,4 hPa 0,0 l/m 8,4 km/h (2 Bft) 0 min 0 min 9,2 km/h (2 Bft)
01.02.2012 22:20 10,5 C -6,2 C 0,0 UV-I 0,0 C 32 % 52 % 0 % 1030,4 hPa 0,0 l/m 6,8 km/h (2 Bft) 0 min 0 min 9,2 km/h (2 Bft)
01.02.2012 22:22 10,3 C -6,2 C 0,0 UV-I 0,0 C 32 % 52 % 0 % 1030,4 hPa 0,0 l/m 6,4 km/h (2 Bft) 0 min 0 min 10,0 km/h (2 Bft)
01.02.2012 22:24 10,3 C -6,2 C 0,0 UV-I 0,0 C 32 % 52 % 0 % 1030,4 hPa 0,0 l/m 6,8 km/h (2 Bft) 0 min 0 min 10,0 km/h (2 Bft)
01.02.2012 22:26 10,3 C -6,4 C 0,0 UV-I 0,0 C 32 % 52 % 0 % 1030,4 hPa 0,0 l/m 6,8 km/h (2 Bft) 0 min 0 min 10,4 km/h (2 Bft)
01.02.2012 22:28 10,3 C -6,4 C 0,0 UV-I 0,0 C 32 % 52 % 0 % 1030,4 hPa 0,0 l/m 7,2 km/h (2 Bft) 0 min 0 min 10,8 km/h (2 Bft)
01.02.2012 22:30 10,5 C -6,4 C 0,0 UV-I 0,0 C 32 % 52 % 0 % 1030,4 hPa 0,0 l/m 7,6 km/h (2 Bft) 0 min 0 min 10,8 km/h (2 Bft)
01.02.2012 22:32 10,5 C -6,4 C 0,0 UV-I 0,0 C 32 % 52 % 0 % 1030,4 hPa 0,0 l/m 6,8 km/h (2 Bft) 0 min 0 min 8,8 km/h (2 Bft)
01.02.2012 22:34 10,5 C -6,4 C 0,0 UV-I 0,0 C 32 % 52 % 0 % 1030,4 hPa 0,0 l/m 6,8 km/h (2 Bft) 0 min 0 min 9,2 km/h (2 Bft)
01.02.2012 22:36 10,5 C -6,4 C 0,0 UV-I 0,0 C 32 % 53 % 0 % 1030,4 hPa 0,0 l/m 6,8 km/h (2 Bft) 0 min 0 min 9,2 km/h (2 Bft)
01.02.2012 22:38 10,5 C -6,5 C 0,0 UV-I 0,0 C 32 % 53 % 0 % 1030,4 hPa 0,0 l/m 6,0 km/h (2 Bft) 0 min 0 min 7,2 km/h (2 Bft)
01.02.2012 22:40 10,3 C -6,5 C 0,0 UV-I 0,0 C 32 % 52 % 0 % 1030,4 hPa 0,0 l/m 4,8 km/h (1 Bft) 0 min 0 min 7,2 km/h (2 Bft)
01.02.2012 22:42 10,3 C -6,4 C 0,0 UV-I 0,0 C 32 % 53 % 0 % 1030,4 hPa 0,0 l/m 5,2 km/h (1 Bft) 0 min 0 min 14,1 km/h (3 Bft)
01.02.2012 22:44 10,3 C -6,4 C 0,0 UV-I 0,0 C 32 % 53 % 0 % 1030,4 hPa 0,0 l/m 6,0 km/h (2 Bft) 0 min 0 min 14,1 km/h (3 Bft)
01.02.2012 22:46 10,3 C -6,6 C 0,0 UV-I 0,0 C 32 % 53 % 0 % 1030,4 hPa 0,0 l/m 6,0 km/h (2 Bft) 0 min 0 min 11,6 km/h (2 Bft)
01.02.2012 22:48 10,3 C -6,6 C 0,0 UV-I 0,0 C 32 % 53 % 0 % 1030,4 hPa 0,0 l/m 7,2 km/h (2 Bft) 0 min 0 min 16,5 km/h (3 Bft)
01.02.2012 22:50 10,3 C -6,6 C 0,0 UV-I 0,0 C 32 % 53 % 0 % 1030,4 hPa 0,0 l/m 7,6 km/h (2 Bft) 0 min 0 min 16,5 km/h (3 Bft)
01.02.2012 22:52 10,3 C -6,6 C 0,0 UV-I 0,0 C 32 % 53 % 0 % 1030,4 hPa 0,0 l/m 8,0 km/h (2 Bft) 0 min 0 min 10,4 km/h (2 Bft)
01.02.2012 22:54 10,3 C -6,6 C 0,0 UV-I 0,0 C 32 % 53 % 0 % 1030,4 hPa 0,0 l/m 7,2 km/h (2 Bft) 0 min 0 min 8,4 km/h (2 Bft)
01.02.2012 22:56 10,3 C -6,6 C 0,0 UV-I 0,0 C 32 % 53 % 0 % 1030,4 hPa 0,0 l/m 8,0 km/h (2 Bft) 0 min 0 min 12,4 km/h (3 Bft)
01.02.2012 22:58 10,3 C -6,6 C 0,0 UV-I 0,0 C 32 % 53 % 0 % 1030,4 hPa 0,0 l/m 8,0 km/h (2 Bft) 0 min 0 min 12,4 km/h (3 Bft)
01.02.2012 23:00 10,3 C -6,6 C 0,0 UV-I 0,0 C 32 % 53 % 0 % 1030,4 hPa 0,0 l/m 8,0 km/h (2 Bft) 0 min 0 min 17,3 km/h (3 Bft)
01.02.2012 23:02 10,3 C -6,6 C 0,0 UV-I 0,0 C 32 % 53 % 0 % 1030,4 hPa 0,0 l/m 8,4 km/h (2 Bft) 0 min 0 min 17,3 km/h (3 Bft)
01.02.2012 23:04 10,3 C -6,6 C 0,0 UV-I 0,0 C 32 % 53 % 0 % 1030,4 hPa 0,0 l/m 8,8 km/h (2 Bft) 0 min 0 min 7,6 km/h (2 Bft)
01.02.2012 23:06 10,3 C -6,7 C 0,0 UV-I 0,0 C 32 % 53 % 0 % 1030,4 hPa 0,0 l/m 8,4 km/h (2 Bft) 0 min 0 min 11,2 km/h (2 Bft)
01.02.2012 23:08 10,3 C -6,6 C 0,0 UV-I 0,0 C 32 % 54 % 0 % 1030,4 hPa 0,0 l/m 8,0 km/h (2 Bft) 0 min 0 min 11,2 km/h (2 Bft)
01.02.2012 23:10 10,3 C -6,6 C 0,0 UV-I 0,0 C 32 % 53 % 0 % 1030,4 hPa 0,0 l/m 8,8 km/h (2 Bft) 0 min 0 min 27,3 km/h (4 Bft)
01.02.2012 23:12 10,3 C -6,6 C 0,0 UV-I 0,0 C 32 % 53 % 0 % 1030,4 hPa 0,0 l/m 8,4 km/h (2 Bft) 0 min 0 min 27,3 km/h (4 Bft)
01.02.2012 23:14 10,3 C -6,6 C 0,0 UV-I 0,0 C 32 % 53 % 0 % 1030,4 hPa 0,0 l/m 8,8 km/h (2 Bft) 0 min 0 min 10,8 km/h (2 Bft)
01.02.2012 23:16 10,3 C -6,6 C 0,0 UV-I 0,0 C 32 % 54 % 0 % 1030,4 hPa 0,0 l/m 8,8 km/h (2 Bft) 0 min 0 min 10,8 km/h (2 Bft)
01.02.2012 23:18 10,3 C -6,6 C 0,0 UV-I 0,0 C 32 % 54 % 0 % 1030,4 hPa 0,0 l/m 9,2 km/h (2 Bft) 0 min 0 min 13,3 km/h (3 Bft)
01.02.2012 23:20 10,4 C -6,6 C 0,0 UV-I 0,0 C 32 % 54 % 0 % 1030,4 hPa 0,0 l/m 8,8 km/h (2 Bft) 0 min 0 min 13,3 km/h (3 Bft)
01.02.2012 23:22 10,4 C -6,6 C 0,0 UV-I 0,0 C 32 % 53 % 0 % 1030,4 hPa 0,0 l/m 9,2 km/h (2 Bft) 0 min 0 min 20,5 km/h (4 Bft)
01.02.2012 23:24 10,4 C -6,6 C 0,0 UV-I 0,0 C 32 % 53 % 0 % 1030,6 hPa 0,0 l/m 8,8 km/h (2 Bft) 0 min 0 min 20,5 km/h (4 Bft)
01.02.2012 23:26 10,3 C -6,6 C 0,0 UV-I 0,0 C 32 % 54 % 0 % 1030,6 hPa 0,0 l/m 8,4 km/h (2 Bft) 0 min 0 min 8,4 km/h (2 Bft)
01.02.2012 23:28 10,3 C -6,8 C 0,0 UV-I 0,0 C 32 % 54 % 0 % 1030,6 hPa 0,0 l/m 8,4 km/h (2 Bft) 0 min 0 min 8,8 km/h (2 Bft)
01.02.2012 23:30 10,3 C -6,8 C 0,0 UV-I 0,0 C 32 % 54 % 0 % 1030,6 hPa 0,0 l/m 8,4 km/h (2 Bft) 0 min 0 min 11,6 km/h (2 Bft)
01.02.2012 23:32 10,3 C -6,8 C 0,0 UV-I 0,0 C 32 % 54 % 0 % 1030,6 hPa 0,0 l/m 8,4 km/h (2 Bft) 0 min 0 min 12,4 km/h (3 Bft)
01.02.2012 23:34 10,4 C -6,8 C 0,0 UV-I 0,0 C 32 % 54 % 0 % 1030,6 hPa 0,0 l/m 8,0 km/h (2 Bft) 0 min 0 min 12,4 km/h (3 Bft)
01.02.2012 23:36 10,3 C -6,8 C 0,0 UV-I 0,0 C 32 % 54 % 0 % 1030,6 hPa 0,0 l/m 8,0 km/h (2 Bft) 0 min 0 min 16,1 km/h (3 Bft)
01.02.2012 23:38 10,4 C -6,8 C 0,0 UV-I 0,0 C 32 % 54 % 0 % 1030,6 hPa 0,0 l/m 9,2 km/h (2 Bft) 0 min 0 min 16,1 km/h (3 Bft)
01.02.2012 23:40 10,4 C -6,9 C 0,0 UV-I 0,0 C 32 % 54 % 0 % 1030,6 hPa 0,0 l/m 8,8 km/h (2 Bft) 0 min 0 min 13,7 km/h (3 Bft)
01.02.2012 23:42 10,4 C -6,9 C 0,0 UV-I 0,0 C 32 % 54 % 0 % 1030,6 hPa 0,0 l/m 8,4 km/h (2 Bft) 0 min 0 min 10,0 km/h (2 Bft)
01.02.2012 23:44 10,4 C -6,9 C 0,0 UV-I 0,0 C 32 % 54 % 0 % 1030,6 hPa 0,0 l/m 8,4 km/h (2 Bft) 0 min 0 min 6,8 km/h (2 Bft)
01.02.2012 23:46 10,4 C -6,9 C 0,0 UV-I 0,0 C 32 % 54 % 0 % 1030,6 hPa 0,0 l/m 8,8 km/h (2 Bft) 0 min 0 min 13,3 km/h (3 Bft)
01.02.2012 23:48 10,4 C -6,9 C 0,0 UV-I 0,0 C 32 % 55 % 0 % 1030,6 hPa 0,0 l/m 8,4 km/h (2 Bft) 0 min 0 min 13,3 km/h (3 Bft)
01.02.2012 23:50 10,4 C -6,8 C 0,0 UV-I 0,0 C 32 % 55 % 0 % 1030,6 hPa 0,0 l/m 7,6 km/h (2 Bft) 0 min 0 min 8,4 km/h (2 Bft)
01.02.2012 23:52 10,4 C -7,0 C 0,0 UV-I 0,0 C 32 % 55 % 0 % 1030,6 hPa 0,0 l/m 8,0 km/h (2 Bft) 0 min 0 min 19,3 km/h (3 Bft)
01.02.2012 23:54 10,4 C -7,0 C 0,0 UV-I 0,0 C 32 % 55 % 0 % 1030,6 hPa 0,0 l/m 8,0 km/h (2 Bft) 0 min 0 min 19,3 km/h (3 Bft)
01.02.2012 23:56 10,4 C -7,0 C 0,0 UV-I 0,0 C 32 % 55 % 0 % 1030,6 hPa 0,0 l/m 8,4 km/h (2 Bft) 0 min 0 min 16,9 km/h (3 Bft)
01.02.2012 23:58 10,4 C -7,0 C 0,0 UV-I 0,0 C 32 % 55 % 0 % 1030,6 hPa 0,0 l/m 8,0 km/h (2 Bft) 0 min 0 min 16,9 km/h (3 Bft)
_ Min-Zeit 08:06 06:38 00:00 00:00 16:20 15:10 00:00 00:00 - 05:26 - - 08:04
Minimum _ 10,1 C -7,8 C 0,0 UV-I 0,0 C 30 % 43 % 0 % 1027,3 hPa - 2,8 km/h (1 Bft) - - 0,0 km/h (0 Bft)
_ Max-Zeit 15:40 14:52 12:58 15:00 00:00 06:22 10:10 23:24 00:00 15:40 09:54 00:00 09:18
Maximum _ 14,0 C -1,0 C 0,5 UV-I 5,5 C 39 % 82 % 100 % 1030,6 hPa 0,0 l/m 14,9 km/h
S-SW (3 Bft)
2 min 0 min 32,1 km/h
W-SW (5 Bft)
Durchschnitt _ 11,0 C -5,4 C 0,0 UV-I 1,0 C 36 % 64 % 24 % 1029,2 hPa #0,0 l/m 9,2 km/h (2 Bft) #6:02 h #0 min. 14,0 km/h (3 Bft)
© 2012 W. Hausmann